                ,  0.675,  0.825,  0.975,  1.125,  1.275,  1.425,  1.575,  1.725,  1.875,  2.025,  2.175,  2.325,  2.475,  2.625,  2.775,  2.925,  3.075,  3.225,  3.375,  3.525,  3.675,  3.825,  3.975,  4.125,  4.275,  4.425,  4.575,  4.725,  4.875,  5.025,  5.175,  5.325,  5.475,  5.625,  5.775,  5.925,  6.075,  6.225,  6.375,  6.525,  6.675,  6.825,  6.975,  7.125,  7.275,  7.425,  7.575,  7.725,  7.875,  8.025,  8.175,  8.325,  8.475,  8.625,  8.775,  8.925,  9.075,  9.225,  9.375,  9.525,  9.675,  9.825,  9.975
2001/06/22 00:00,   -5.4,   -5.4,   -5.3,   -5.4,   -5.5,   -5.7,   -5.7,   -5.9,   -6.1,   -6.2,   -6.2,   -6.1,   -6.2,   -6.1,   -6.1,   -6.2,   -6.2,   -6.2,   -6.1,   -6.1,   -5.6,   -3.6,   -2.5,   -1.9,   -1.6,   -1.6,   -1.5,   -1.4,   -1.3,   -1.3,   -1.3,   -1.3,   -1.3,   -1.3,   -1.3,   -1.3,   -1.3,   -1.3,   -1.2,   -1.3,   -1.3,   -1.2,   -1.1,   -1.1,   -1.0,   -0.9,   -0.9,   -1.1,   -1.2,   -1.2,   -1.2,   -1.2,   -1.2,   -1.2,   -1.2,   -1.1,   -1.0,   -0.9,   -0.9,   -0.9,   -0.8,   -0.8,   -0.7
2001/06/22 00:10,   -5.6,   -5.5,   -5.5,   -5.5,   -5.6,   -5.6,   -5.6,   -5.8,   -5.9,   -6.0,   -6.0,   -6.1,   -6.2,   -6.4,   -6.5,   -6.5,   -6.8,   -6.8,   -6.5,   -6.6,   -5.7,   -4.0,   -2.6,   -2.0,   -1.9,   -1.7,   -1.6,   -1.5,   -1.5,   -1.4,   -1.4,   -1.4,   -1.4,   -1.4,   -1.4,   -1.4,   -1.3,   -1.3,   -1.2,   -1.2,   -1.2,   -1.1,   -1.1,   -1.0,   -0.9,   -0.9,   -1.0,   -1.0,   -1.1,   -1.1,   -1.1,   -1.0,   -0.9,   -0.9,   -0.9,   -0.8,   -0.8,   -0.8,   -0.7,   -0.7,   -0.7,   -0.7,   -0.7
2001/06/22 00:20,   -6.6,   -6.6,   -6.6,   -6.6,   -6.6,   -6.6,   -6.6,   -6.6,   -6.5,   -6.4,   -6.3,   -6.3,   -6.3,   -6.4,   -6.6,   -6.7,   -6.6,   -6.5,   -6.6,   -6.5,   -5.6,   -4.3,   -2.6,   -1.9,   -1.6,   -1.6,   -1.6,   -1.5,   -1.5,   -1.4,   -1.3,   -1.3,   -1.3,   -1.3,   -1.3,   -1.2,   -1.2,   -1.3,   -1.3,   -1.2,   -1.2,   -1.2,   -1.1,   -1.1,   -1.1,   -1.0,   -1.1,   -1.1,   -1.2,   -1.1,   -1.1,   -1.0,   -1.0,   -1.0,   -0.9,   -0.9,   -0.8,   -0.8,   -0.8,   -0.8,  999.0,  999.0,  999.0
2001/06/22 00:30,   -5.6,   -6.3,   -5.9,   -5.9,   -5.7,   -5.6,   -5.6,   -5.8,   -5.5,   -5.6,   -5.7,   -5.8,   -5.9,   -5.9,   -5.7,   -5.6,   -5.4,   -5.7,   -5.6,   -5.7,   -6.1,   -5.1,   -3.4,   -2.3,   -1.8,   -1.7,   -1.5,   -1.4,   -1.3,   -1.2,   -1.2,   -1.2,   -1.1,   -1.2,   -1.2,   -1.2,   -1.2,   -1.2,   -1.1,   -1.1,   -1.1,   -1.0,   -0.9,   -0.9,   -0.8,   -0.9,   -0.9,   -0.9,   -0.9,   -0.9,   -0.9,   -0.9,   -0.9,   -0.8,   -0.9,   -0.8,   -0.8,   -0.8,   -0.8,   -0.8,   -0.8,  999.0,  999.0
2001/06/22 00:40,   -6.0,   -5.8,   -5.7,   -5.6,   -5.6,   -5.6,   -5.4,   -5.4,   -5.4,   -5.4,   -5.4,   -5.4,   -5.5,   -5.4,   -5.5,   -5.5,   -5.4,   -5.3,   -5.3,   -5.3,   -5.3,   -4.8,   -3.0,   -2.1,   -1.8,   -1.6,   -1.5,   -1.5,   -1.4,   -1.4,   -1.3,   -1.3,   -1.3,   -1.3,   -1.3,   -1.3,   -1.3,   -1.3,   -1.2,   -1.2,   -1.2,   -1.1,   -1.1,   -1.0,   -1.0,   -1.0,   -1.0,   -1.1,   -1.2,   -1.1,   -1.1,   -1.1,   -1.0,   -1.0,   -1.0,   -1.0,   -0.9,   -0.9,   -0.9,   -0.9,   -0.8,   -0.9,   -0.8
2001/06/22 00:50,   -5.2,   -5.2,   -5.2,   -5.3,   -5.4,   -5.3,   -5.4,   -5.5,   -5.6,   -5.6,   -5.7,   -5.7,   -5.8,   -5.9,   -6.1,   -6.0,   -5.9,   -5.9,   -6.0,   -6.0,   -6.1,   -4.3,   -2.6,   -2.0,   -1.7,   -1.6,   -1.5,   -1.5,   -1.5,   -1.4,   -1.3,   -1.3,   -1.3,   -1.2,   -1.3,   -1.3,   -1.2,   -1.3,   -1.2,   -1.2,   -1.1,   -1.1,   -1.0,   -1.0,   -0.9,   -0.9,   -0.9,   -0.9,   -1.0,   -1.0,   -1.1,   -1.1,   -1.0,   -1.0,   -1.0,   -1.0,   -1.0,   -1.0,   -1.0,   -0.9,   -1.0,   -0.9,   -0.9
2001/06/22 01:00,   -5.9,   -5.9,   -5.8,   -5.8,   -5.8,   -5.8,   -5.8,   -5.9,   -5.9,   -5.9,   -5.9,   -6.0,   -6.0,   -5.9,   -6.0,   -6.0,   -5.9,   -5.8,   -5.9,   -5.9,   -5.7,   -3.9,   -2.3,   -1.8,   -1.7,   -1.6,   -1.6,   -1.5,   -1.5,   -1.4,   -1.3,   -1.3,   -1.2,   -1.1,   -1.2,   -1.3,   -1.3,   -1.3,   -1.3,   -1.3,   -1.2,   -1.2,   -1.1,   -1.1,   -1.1,   -1.1,   -1.1,   -1.1,   -1.2,   -1.1,   -1.1,   -1.1,   -1.0,   -1.0,   -0.9,   -0.9,   -0.9,   -1.0,   -1.0,   -0.8,  999.0,  999.0,  999.0
2001/06/22 01:10,   -5.0,   -5.1,   -5.1,   -5.1,   -5.0,   -4.8,   -4.7,   -4.7,   -4.7,   -4.6,   -4.6,   -4.6,   -4.7,   -4.6,   -4.4,   -4.4,   -4.5,   -4.5,   -4.4,   -4.4,   -4.5,   -3.8,   -2.2,   -1.9,   -1.8,   -1.8,   -1.7,   -1.6,   -1.6,   -1.5,   -1.3,   -1.1,   -1.0,   -1.0,   -1.1,   -1.2,   -1.3,   -1.2,   -1.2,   -1.2,   -1.1,   -1.1,   -1.1,   -1.0,   -1.1,   -1.0,   -1.0,   -0.9,   -1.0,   -1.0,   -1.0,   -1.0,   -1.0,   -0.9,   -1.0,   -0.8,   -0.8,   -0.9,  999.0,  999.0,  999.0,  999.0,  999.0
2001/06/22 01:20,   -4.2,   -4.4,   -4.5,   -4.5,   -4.5,   -4.4,   -4.4,   -4.7,   -4.6,   -4.6,   -4.7,   -4.9,   -5.0,   -5.0,   -5.1,   -5.1,   -5.2,   -5.2,   -5.2,   -5.3,   -5.2,   -3.4,   -2.2,   -1.9,   -1.8,   -1.7,   -1.6,   -1.6,   -1.5,   -1.4,   -1.4,   -1.4,   -1.3,   -1.3,   -1.3,   -1.3,   -1.3,   -1.3,   -1.3,   -1.2,   -1.1,   -1.1,   -1.1,   -1.1,   -1.1,   -1.1,   -1.1,   -1.1,   -1.2,   -1.1,   -1.1,   -1.2,   -1.1,   -1.1,   -1.0,   -1.0,   -0.9,   -1.0,   -1.0,   -0.9,   -0.9,   -0.8,   -0.7
2001/06/22 01:30,   -4.8,   -4.9,   -4.9,   -4.9,   -4.9,   -4.9,   -5.0,   -5.2,   -5.1,   -4.9,   -5.0,   -5.1,   -5.1,   -5.0,   -5.2,   -5.3,   -5.4,   -5.3,   -5.3,   -5.3,   -5.3,   -3.8,   -2.2,   -1.8,   -1.7,   -1.6,   -1.6,   -1.5,   -1.4,   -1.3,   -1.2,   -1.2,   -1.2,   -1.2,   -1.2,   -1.2,   -1.2,   -1.2,   -1.1,   -1.1,   -1.1,   -1.1,   -1.0,   -1.0,   -1.0,   -1.1,   -1.0,   -1.0,   -1.1,   -1.0,   -1.0,   -0.9,   -0.9,   -0.9,   -0.9,   -1.0,   -0.8,   -0.7,  999.0,  999.0,  999.0,  999.0,  999.0
2001/06/22 01:40,   -4.9,   -5.0,   -4.8,   -4.7,   -4.6,   -4.6,   -4.4,   -4.5,   -4.5,   -4.5,   -4.6,   -4.7,   -4.7,   -4.8,   -4.8,   -4.8,   -4.8,   -4.8,   -4.7,   -4.6,   -4.6,   -4.0,   -2.2,   -1.8,   -1.6,   -1.5,   -1.5,   -1.4,   -1.3,   -1.1,   -1.1,   -1.0,   -0.9,   -0.9,   -0.9,   -1.0,   -1.1,   -1.1,   -1.1,   -1.1,   -1.0,   -1.0,   -1.0,   -0.9,   -1.0,   -1.0,   -1.0,   -0.9,   -1.1,   -1.0,   -0.9,   -0.9,   -0.9,   -1.0,   -0.9,   -0.9,   -0.8,   -0.8,   -0.7,  999.0,  999.0,  999.0,  999.0
2001/06/22 01:50,   -4.5,   -4.4,   -4.5,   -4.6,   -4.8,   -4.5,   -4.5,   -5.0,   -5.0,   -4.8,   -4.9,   -5.0,   -4.9,   -5.0,   -4.9,   -4.8,   -4.8,   -4.8,   -4.7,   -4.7,   -4.7,   -3.9,   -2.3,   -1.8,   -1.8,   -1.7,   -1.7,   -1.7,   -1.6,   -1.5,   -1.5,   -1.4,   -1.4,   -1.4,   -1.4,   -1.4,   -1.4,   -1.4,   -1.3,   -1.3,   -1.2,   -1.2,   -1.2,   -1.2,   -1.2,   -1.1,   -1.1,   -1.0,   -1.1,   -1.1,   -1.0,   -1.0,   -0.9,  999.0,  999.0,  999.0,  999.0,  999.0,  999.0,  999.0,  999.0,  999.0,  999.0
2001/06/22 02:00,   -4.5,   -4.8,   -4.7,   -5.0,   -5.0,   -4.9,   -4.9,   -4.9,   -4.6,   -4.6,   -4.8,   -5.0,   -5.0,   -4.8,   -4.8,   -4.9,   -4.9,   -4.9,   -5.0,   -5.0,   -4.9,   -3.2,   -2.1,   -1.9,   -1.8,   -1.8,   -1.7,   -1.7,   -1.7,   -1.6,   -1.6,   -1.5,   -1.4,   -1.4,   -1.4,   -1.4,   -1.4,   -1.4,   -1.4,   -1.3,   -1.3,   -1.2,   -1.2,   -1.2,   -1.2,   -1.2,   -1.1,   -1.1,   -1.1,   -1.2,   -1.1,   -1.2,   -1.0,   -0.9,   -0.9,   -0.9,   -0.8,   -0.8,   -0.7,   -0.6,   -0.6,   -0.6,   -0.6
2001/06/22 02:10,   -5.7,   -5.5,   -5.9,   -6.4,   -6.3,   -5.7,   -5.8,   -5.7,   -5.9,   -6.2,   -6.2,   -6.3,   -6.2,   -6.2,   -6.1,   -6.0,   -6.0,   -6.1,   -6.0,   -5.8,   -5.0,   -2.6,   -1.9,   -1.8,   -1.8,   -1.7,   -1.7,   -1.6,   -1.6,   -1.5,   -1.5,   -1.4,   -1.4,   -1.4,   -1.3,   -1.3,   -1.3,   -1.3,   -1.2,   -1.2,   -1.2,   -1.2,   -1.1,   -1.1,   -1.0,   -1.0,   -0.9,   -0.9,   -1.0,   -1.0,   -0.9,   -0.9,   -0.9,   -0.9,   -0.8,   -0.8,   -0.9,   -0.8,   -0.8,   -0.7,   -0.8,   -0.9,   -0.8
2001/06/22 02:20,   -6.2,   -6.8,   -6.4,   -6.7,   -6.7,   -6.9,   -6.9,   -7.0,   -7.6,   -7.6,   -7.7,   -7.8,   -7.9,   -8.0,   -8.0,   -8.2,   -8.3,   -8.4,   -8.3,   -7.9,   -4.9,   -2.7,   -2.1,   -2.0,   -1.9,   -1.8,   -1.8,   -1.7,   -1.6,   -1.5,   -1.4,   -1.4,   -1.4,   -1.3,   -1.3,   -1.3,   -1.3,   -1.3,   -1.3,   -1.3,   -1.3,   -1.3,   -1.2,   -1.2,   -1.2,   -1.2,   -1.1,   -1.1,   -1.0,   -0.9,   -0.9,   -0.9,   -0.9,   -0.9,   -0.8,   -0.8,   -0.7,   -0.7,   -0.7,   -0.6,  999.0,  999.0,  999.0
2001/06/22 02:30,   -6.8,   -6.9,   -6.9,   -6.8,   -6.7,   -6.7,   -6.7,   -6.8,   -6.9,   -6.9,   -7.0,   -7.0,   -7.1,   -7.1,   -7.2,   -7.2,   -7.3,   -7.3,   -7.3,   -7.0,   -4.7,   -2.8,   -2.2,   -2.0,   -1.9,   -1.9,   -1.8,   -1.7,   -1.6,   -1.6,   -1.5,   -1.5,   -1.5,   -1.4,   -1.4,   -1.3,   -1.4,   -1.3,   -1.3,   -1.3,   -1.3,   -1.3,   -1.3,   -1.2,   -1.2,   -1.2,   -1.1,   -1.1,   -1.1,   -1.0,   -1.0,   -1.0,   -1.0,   -0.9,   -0.9,   -0.8,   -0.8,   -0.7,   -0.7,   -0.7,   -0.7,   -0.7,   -0.6
2001/06/22 02:40,   -6.6,   -6.5,   -6.5,   -6.6,   -6.5,   -6.5,   -6.4,   -6.6,   -6.6,   -6.6,   -6.7,   -6.7,   -6.6,   -6.6,   -6.6,   -6.7,   -6.7,   -6.7,   -6.6,   -6.5,   -4.7,   -2.7,   -2.1,   -1.9,   -1.7,   -1.7,   -1.7,   -1.6,   -1.5,   -1.5,   -1.4,   -1.4,   -1.3,   -1.3,   -1.2,   -1.2,   -1.2,   -1.1,   -1.1,   -1.1,   -1.0,   -1.0,   -1.0,   -1.0,   -0.9,   -0.9,   -0.9,   -0.9,   -0.9,   -0.9,   -0.9,   -0.9,   -0.9,   -0.9,   -0.9,   -0.9,   -0.8,   -0.8,   -0.7,   -0.7,   -0.6,   -0.6,  999.0
2001/06/22 02:50,   -5.1,   -5.0,   -5.0,   -5.1,   -5.1,   -4.8,   -4.8,   -4.6,   -4.8,   -4.8,   -4.9,   -4.9,   -5.2,   -5.4,   -5.0,   -5.1,   -5.0,   -4.9,   -5.0,   -5.1,   -4.3,   -2.9,   -2.4,   -2.3,   -2.1,   -2.1,   -2.1,   -1.9,   -1.7,   -1.6,   -1.5,   -1.4,   -1.3,   -1.2,   -1.1,   -1.1,   -1.1,   -1.1,   -1.2,   -1.2,   -1.2,   -1.2,   -1.2,   -1.2,   -1.2,   -1.1,   -1.1,   -1.1,   -1.1,   -1.1,   -1.0,   -1.0,   -0.9,   -0.9,   -0.9,   -0.8,   -0.8,   -0.8,   -0.7,   -0.7,   -0.6,   -0.6,   -0.7
2001/06/22 03:00,   -4.5,   -4.4,   -4.3,   -4.2,   -4.1,   -4.1,   -4.2,   -4.0,   -4.3,   -4.3,   -4.1,   -4.2,   -4.2,   -4.3,   -4.2,   -4.3,   -4.3,   -4.4,   -4.4,   -4.4,   -4.4,   -3.4,   -2.4,   -2.0,   -1.9,   -1.7,   -1.6,   -1.6,   -1.5,   -1.4,   -1.3,   -1.3,   -1.1,   -1.0,   -1.0,   -1.1,   -1.2,   -1.2,   -1.1,   -1.2,   -1.2,   -1.2,   -1.1,   -1.1,   -1.2,   -1.1,   -1.1,   -1.1,   -1.1,   -1.1,   -1.1,   -1.0,   -1.0,   -0.9,   -0.9,   -0.9,   -0.8,   -0.8,   -0.7,   -0.6,   -0.6,   -0.6,  999.0
2001/06/22 03:10,   -4.2,   -4.7,   -4.8,   -5.1,   -5.0,   -4.8,   -4.6,   -4.5,   -4.5,   -4.4,   -4.0,   -4.1,   -4.0,   -3.9,   -3.9,   -4.6,   -4.1,   -3.9,   -4.3,   -4.0,   -3.9,   -3.8,   -2.6,   -1.9,   -1.8,   -1.6,   -1.5,   -1.4,   -1.3,   -1.3,   -1.3,   -1.2,   -1.2,   -1.2,   -1.2,   -1.2,   -1.3,   -1.4,   -1.3,   -1.4,   -1.4,   -1.3,   -1.3,   -1.3,   -1.2,   -1.2,   -1.2,   -1.2,   -1.2,   -1.2,   -1.1,   -1.1,   -1.0,   -1.1,   -1.0,   -1.1,   -1.0,   -1.0,   -1.0,   -1.0,   -0.9,   -0.9,   -0.9
2001/06/22 03:20,   -4.2,   -4.4,   -3.8,   -3.8,   -3.7,   -3.7,   -3.8,   -3.8,   -4.0,   -4.1,   -4.1,   -4.2,   -4.3,   -4.4,   -4.5,   -4.6,   -4.6,   -4.6,   -4.7,   -4.8,   -4.8,   -4.6,   -3.1,   -2.3,   -2.0,   -1.8,   -1.6,   -1.5,   -1.4,   -1.3,   -1.2,   -1.2,   -1.2,   -1.1,   -1.1,   -1.1,   -1.2,   -1.2,   -1.2,   -1.2,   -1.2,   -1.1,   -1.2,   -1.2,   -1.2,   -1.2,   -1.1,   -1.1,   -1.1,   -1.1,   -1.1,   -1.0,   -1.0,   -1.0,   -1.0,   -0.9,   -0.9,   -0.8,   -0.9,   -0.8,   -0.8,   -0.8,   -0.7
2001/06/22 03:30,   -4.6,   -4.3,   -4.1,   -4.0,   -3.9,   -3.8,   -3.8,   -4.0,   -3.9,   -3.9,   -4.0,   -4.0,   -3.7,   -3.6,   -3.9,   -3.9,   -4.1,   -4.2,   -4.2,   -4.2,   -4.2,   -4.0,   -3.3,   -2.3,   -1.8,   -1.7,   -1.6,   -1.5,   -1.4,   -1.4,   -1.3,   -1.2,   -1.1,   -1.1,   -1.1,   -1.1,   -1.1,   -1.1,   -1.1,   -1.1,   -1.1,   -1.1,   -1.1,   -1.1,   -1.1,   -1.1,   -1.1,   -1.0,   -1.0,   -1.0,   -0.9,   -1.0,   -0.9,   -0.9,   -0.9,   -0.8,   -0.8,   -0.8,   -0.8,   -0.8,   -0.8,   -0.8,   -0.8
2001/06/22 03:40,   -3.8,   -3.9,   -3.9,   -4.1,   -4.0,   -4.0,   -4.2,   -4.0,   -4.1,   -4.2,   -4.1,   -4.3,   -4.1,   -4.2,   -4.1,   -4.2,   -4.1,   -3.9,   -3.9,   -3.9,   -3.9,   -3.8,   -3.0,   -2.1,   -1.7,   -1.5,   -1.4,   -1.3,   -1.3,   -1.2,   -1.1,   -1.0,   -1.0,   -1.0,   -1.0,   -1.0,   -1.0,   -0.9,   -0.9,   -0.9,   -0.9,   -1.0,   -0.9,   -0.9,   -0.8,   -0.8,   -0.8,   -0.8,   -0.8,   -0.8,   -0.8,   -0.8,   -0.8,   -0.8,   -0.8,   -0.7,   -0.8,   -0.7,   -0.7,   -0.7,   -0.8,   -0.7,   -0.7
2001/06/22 03:50,   -3.3,   -3.2,   -3.5,   -3.6,   -3.6,   -3.6,   -3.5,   -3.4,   -3.4,   -3.2,   -3.1,   -3.0,   -2.9,   -2.9,   -2.9,   -3.0,   -3.3,   -3.0,   -3.2,   -3.0,   -2.9,   -3.5,   -3.1,   -2.2,   -1.8,   -1.6,   -1.3,   -1.2,   -1.1,   -1.1,   -1.0,   -1.0,   -0.9,   -0.9,   -0.8,   -0.8,   -0.8,   -0.8,   -0.8,   -0.8,   -0.8,   -0.8,   -0.8,   -0.8,   -0.7,   -0.7,   -0.9,   -1.0,   -1.0,   -1.1,   -1.0,   -1.0,   -1.0,   -1.0,   -1.0,   -1.0,   -1.0,   -0.9,   -0.9,   -0.9,   -0.8,   -0.8,   -0.8
2001/06/22 04:00,   -5.2,   -5.1,   -5.5,   -5.4,   -5.2,   -5.2,   -5.2,   -5.0,   -5.1,   -5.2,   -4.9,   -5.7,   -5.4,   -5.1,   -5.0,   -5.1,   -4.9,   -4.8,   -4.8,   -4.9,   -4.9,   -4.8,   -4.4,   -3.0,   -2.0,   -1.5,   -1.4,   -1.3,   -1.2,   -1.2,   -1.2,   -1.2,   -1.1,   -1.1,   -1.0,   -1.0,   -1.1,   -1.0,   -1.1,   -1.1,   -1.1,   -1.1,   -1.1,   -1.0,   -1.0,   -1.0,   -1.1,   -1.0,   -1.1,   -1.1,   -1.1,   -1.1,   -1.2,   -1.2,   -1.2,   -1.2,   -1.1,   -1.2,   -1.1,   -1.0,   -1.0,   -1.0,   -1.0
2001/06/22 04:10,   -4.2,   -4.3,   -4.1,   -4.6,   -4.4,   -4.5,   -4.0,   -4.1,   -4.3,   -4.3,   -4.3,   -4.3,   -4.2,   -4.3,   -4.3,   -4.3,   -4.4,   -4.5,   -4.5,   -4.6,   -4.7,   -4.6,   -3.5,   -2.3,   -2.0,   -1.9,   -1.8,   -1.6,   -1.6,   -1.6,   -1.5,   -1.3,   -1.2,   -1.1,   -1.1,   -1.2,   -1.3,   -1.2,   -1.2,   -1.2,   -1.2,   -1.2,   -1.1,   -1.1,   -1.1,   -1.1,   -1.2,   -1.2,   -1.2,   -1.2,   -1.2,   -1.2,   -1.2,   -1.2,   -1.1,   -1.2,   -1.1,   -1.1,   -1.1,   -1.1,   -1.0,   -1.0,   -1.0
2001/06/22 04:20,   -4.6,   -4.7,   -4.7,   -4.7,   -4.6,   -4.6,   -4.6,   -4.6,   -4.7,   -4.7,   -4.7,   -4.7,   -4.6,   -4.6,   -4.6,   -4.6,   -4.6,   -4.7,   -4.7,   -4.6,   -4.7,   -4.6,   -3.4,   -2.2,   -1.8,   -1.7,   -1.5,   -1.5,   -1.4,   -1.4,   -1.3,   -1.3,   -1.2,   -1.1,   -1.2,   -1.3,   -1.3,   -1.3,   -1.3,   -1.4,   -1.3,   -1.3,   -1.3,   -1.2,   -1.3,   -1.2,   -1.3,   -1.3,   -1.3,   -1.3,   -1.3,   -1.3,   -1.3,   -1.3,   -1.2,   -1.2,   -1.1,   -1.1,   -1.0,   -1.0,   -0.9,   -0.9,   -0.9
2001/06/22 04:30,   -4.1,   -4.0,   -4.1,   -4.1,   -4.0,   -4.1,   -4.1,   -4.2,   -4.2,   -4.2,   -4.3,   -4.2,   -4.3,   -4.3,   -4.4,   -4.4,   -4.5,   -4.6,   -4.6,   -4.6,   -4.7,   -4.7,   -3.3,   -1.9,   -1.6,   -1.5,   -1.4,   -1.3,   -1.4,   -1.3,   -1.3,   -1.2,   -1.2,   -1.2,   -1.3,   -1.3,   -1.3,   -1.3,   -1.3,   -1.3,   -1.3,   -1.3,   -1.3,   -1.3,   -1.3,   -1.3,   -1.3,   -1.3,   -1.4,   -1.4,   -1.4,   -1.4,   -1.3,   -1.3,   -1.2,   -1.1,   -1.1,   -1.1,   -1.0,   -1.0,   -1.0,   -0.9,   -0.9
2001/06/22 04:40,   -4.6,   -4.6,   -4.6,   -4.7,   -4.6,   -4.6,   -4.7,   -4.8,   -4.8,   -4.7,   -4.8,   -4.8,   -4.8,   -4.9,   -4.8,   -4.9,   -5.0,   -5.0,   -5.0,   -5.0,   -5.0,   -5.1,   -3.5,   -2.1,   -1.8,   -1.8,   -1.8,   -1.8,   -1.7,   -1.6,   -1.6,   -1.5,   -1.4,   -1.3,   -1.4,   -1.4,   -1.4,   -1.4,   -1.4,   -1.3,   -1.4,   -1.4,   -1.3,   -1.3,   -1.3,   -1.3,   -1.3,   -1.3,   -1.3,   -1.3,   -1.3,   -1.2,   -1.2,   -1.2,   -1.1,   -1.1,   -1.1,   -1.0,   -1.0,   -1.0,   -0.9,   -0.9,   -0.9
2001/06/22 04:50,   -4.6,   -4.6,   -4.5,   -4.6,   -4.6,   -4.7,   -4.6,   -4.6,   -4.6,   -4.7,   -4.7,   -4.8,   -4.8,   -4.8,   -4.9,   -4.9,   -5.0,   -5.0,   -4.9,   -4.9,   -4.9,   -5.0,   -3.6,   -2.4,   -2.0,   -1.8,   -1.7,   -1.7,   -1.7,   -1.6,   -1.5,   -1.4,   -1.3,   -1.3,   -1.4,   -1.4,   -1.4,   -1.3,   -1.3,   -1.3,   -1.3,   -1.2,   -1.2,   -1.3,   -1.2,   -1.3,   -1.3,   -1.3,   -1.3,   -1.2,   -1.2,   -1.2,   -1.2,   -1.1,   -1.1,   -1.1,   -1.1,   -1.1,   -1.0,   -1.0,   -1.0,   -0.9,   -0.8
2001/06/22 05:00,   -4.4,   -4.4,   -4.4,   -4.5,   -4.5,   -4.4,   -4.5,   -4.6,   -4.5,   -4.4,   -4.6,   -4.6,   -4.5,   -4.5,   -4.5,   -4.5,   -4.6,   -4.7,   -4.5,   -4.5,   -4.4,   -4.3,   -4.3,   -3.2,   -2.1,   -1.6,   -1.6,   -1.5,   -1.4,   -1.4,   -1.3,   -1.3,   -1.3,   -1.3,   -1.2,   -1.2,   -1.2,   -1.2,   -1.1,   -1.1,   -1.1,   -1.1,   -1.1,   -1.1,   -1.1,   -1.1,   -1.0,   -1.0,   -1.0,   -1.0,   -1.0,   -1.0,   -0.9,   -0.9,   -0.8,   -0.8,   -0.8,   -0.8,   -0.7,   -0.8,   -0.8,   -0.8,   -0.7
2001/06/22 05:10,   -4.0,   -3.9,   -4.0,   -4.0,   -3.9,   -4.0,   -4.0,   -4.1,   -4.0,   -4.2,   -4.2,   -4.2,   -4.2,   -4.2,   -4.3,   -4.4,   -4.5,   -4.6,   -4.6,   -4.6,   -4.6,   -4.7,   -4.6,   -3.0,   -2.1,   -1.8,   -1.7,   -1.6,   -1.5,   -1.4,   -1.3,   -1.2,   -1.2,   -1.2,   -1.3,   -1.3,   -1.3,   -1.3,   -1.2,   -1.2,   -1.2,   -1.2,   -1.2,   -1.2,   -1.2,   -1.2,   -1.1,   -1.1,   -1.1,   -1.1,   -1.1,   -1.0,   -1.0,   -0.9,   -0.9,   -0.8,   -0.8,   -0.8,   -0.8,   -0.8,   -0.9,   -0.6,  999.0
2001/06/22 05:20,   -4.2,   -4.4,   -4.5,   -4.4,   -4.5,   -4.5,   -4.5,   -4.5,   -4.6,   -4.7,   -4.8,   -4.9,   -4.8,   -4.9,   -5.0,   -5.1,   -5.2,   -5.3,   -5.2,   -5.1,   -5.1,   -5.1,   -4.8,   -2.7,   -1.8,   -1.6,   -1.6,   -1.5,   -1.5,   -1.5,   -1.4,   -1.4,   -1.4,   -1.4,   -1.5,   -1.5,   -1.4,   -1.4,   -1.4,   -1.4,   -1.3,   -1.3,   -1.2,   -1.1,   -1.1,   -1.1,   -1.1,   -1.1,   -1.1,   -1.0,   -1.0,   -0.9,   -0.9,   -0.9,   -0.9,   -0.9,   -0.8,   -0.8,   -0.8,   -0.8,   -0.8,   -0.8,   -0.8
2001/06/22 05:30,   -4.6,   -4.6,   -4.8,   -4.5,   -4.5,   -4.3,   -4.4,   -4.2,   -4.2,   -4.1,   -4.4,   -4.3,   -4.2,   -4.1,   -4.2,   -4.2,   -4.1,   -4.0,   -4.0,   -3.9,   -3.9,   -3.9,   -3.8,   -2.4,   -1.8,   -1.7,   -1.7,   -1.7,   -1.6,   -1.6,   -1.5,   -1.4,   -1.3,   -1.3,   -1.4,   -1.4,   -1.4,   -1.4,   -1.3,   -1.3,   -1.3,   -1.2,   -1.2,   -1.1,   -1.0,   -1.0,   -1.1,   -1.1,   -1.1,   -1.0,   -1.1,   -0.9,   -0.8,   -0.9,   -0.9,   -0.8,   -0.8,   -0.6,  999.0,  999.0,  999.0,  999.0,  999.0
2001/06/22 05:40,   -3.5,   -3.5,   -3.6,   -3.6,   -3.6,   -3.3,   -3.5,   -3.5,   -3.4,   -3.4,   -3.4,   -3.4,   -3.4,   -3.5,   -3.5,   -3.5,   -3.6,   -3.7,   -3.7,   -3.7,   -3.8,   -3.8,   -3.4,   -2.5,   -1.9,   -1.6,   -1.5,   -1.4,   -1.2,   -0.9,   -0.8,   -0.8,   -1.2,   -1.3,   -1.3,   -1.4,   -1.4,   -1.3,   -1.3,   -1.2,   -1.1,   -1.0,   -1.0,   -0.9,   -0.9,   -0.9,   -0.8,   -0.9,   -0.9,   -1.0,   -1.0,   -1.0,   -1.0,   -1.0,   -1.0,   -0.9,  999.0,  999.0,  999.0,  999.0,  999.0,  999.0,  999.0
2001/06/22 05:50,   -2.9,   -2.8,   -1.7,   -2.5,   -2.5,   -2.5,   -2.7,   -2.8,   -2.9,   -3.0,   -3.2,   -3.4,   -3.6,   -3.7,   -3.6,   -4.2,   -3.8,   -4.1,   -4.0,   -4.2,   -4.3,   -4.3,   -3.0,   -2.4,   -2.1,   -2.1,   -1.9,   -1.8,   -1.7,   -1.7,   -1.7,   -1.7,   -1.7,   -1.7,   -1.7,   -1.7,   -1.7,   -1.6,   -1.5,   -1.3,   -1.2,   -1.1,   -1.0,   -0.8,   -0.7,   -0.7,   -0.7,   -0.7,   -0.8,   -0.7,   -0.8,  999.0,  999.0,  999.0,  999.0,   -0.9,   -0.9,   -0.8,   -0.8,   -0.9,   -0.8,   -0.8,   -0.8
2001/06/22 06:00,   -4.4,   -4.3,   -3.8,   -4.3,   -4.3,   -4.4,   -4.3,   -4.1,   -4.3,   -4.3,   -4.4,   -4.3,   -4.1,   -4.6,   -3.8,   -4.7,   -4.6,   -4.2,   -5.1,   -4.1,   -3.9,   -3.1,   -2.9,   -2.7,   -2.3,   -1.8,   -1.5,   -1.2,   -1.2,   -1.1,   -1.3,   -1.2,   -1.1,   -1.2,   -1.5,   -1.4,   -1.4,   -1.3,   -1.2,   -1.2,   -1.1,   -1.0,   -0.9,   -0.9,   -0.8,   -0.8,   -0.8,   -0.8,   -0.9,  999.0,  999.0,  999.0,  999.0,  999.0,  999.0,  999.0,  999.0,  999.0,  999.0,  999.0,  999.0,  999.0,   -0.7
2001/06/22 06:10,   -3.7,   -3.2,   -1.8,   -1.7,   -3.9,   -3.7,   -4.2,   -2.8,   -3.8,   -1.4,   -4.6,   -3.8,   -0.9,   -2.7,   -2.8,   -2.9,   -3.2,   -3.0,   -2.9,   -2.3,   -1.8,   -1.9,   -1.2,   -2.4,   -2.1,   -1.5,   -1.4,   -1.6,   -1.2,   -1.3,   -1.4,   -1.3,   -1.3,   -1.3,   -1.3,   -1.3,   -1.2,   -1.2,   -1.1,   -1.0,   -1.0,   -1.0,   -0.9,   -0.9,   -1.0,   -1.0,   -1.1,   -1.0,   -1.0,   -1.0,   -0.9,   -0.8,   -0.8,   -0.9,   -0.8,   -0.8,   -0.8,   -0.8,   -0.7,  999.0,  999.0,  999.0,  999.0
2001/06/22 06:20,   -1.0,   -0.1,   -0.3,   -2.7,   -1.7,   -2.5,   -3.9,   -1.9,   -3.3,   -1.8,   -4.1,   -2.8,   -1.6,   -2.7,   -3.0,   -3.1,   -4.1,   -4.2,   -4.4,   -3.7,   -3.5,   -2.8,   -4.1,   -3.5,   -2.7,   -2.1,   -2.0,   -1.9,   -1.8,   -1.8,   -1.8,   -1.7,   -1.8,   -1.8,   -1.7,   -1.8,   -1.7,   -1.6,   -1.4,   -1.3,   -1.1,   -1.0,   -1.0,   -0.9,   -0.9,   -0.8,   -0.9,   -0.9,   -0.9,   -0.9,   -0.8,   -0.7,   -0.7,   -0.6,   -0.6,   -0.6,  999.0,  999.0,  999.0,  999.0,  999.0,  999.0,  999.0
2001/06/22 06:30,   -3.7,   -3.6,   -3.2,   -3.8,   -3.3,   -3.1,   -2.9,   -3.0,   -2.9,   -2.2,   -2.7,   -2.8,   -3.0,   -2.2,   -3.2,   -3.1,   -3.7,   -3.8,   -3.8,   -4.1,   -4.0,   -4.0,   -4.0,   -3.2,   -2.5,   -1.8,   -1.7,   -1.5,   -1.4,   -1.5,   -1.7,   -1.9,   -2.0,   -2.0,   -2.0,   -2.0,   -1.9,   -1.7,   -1.5,   -1.4,   -1.2,   -1.1,   -1.1,   -1.1,   -1.1,   -1.0,   -0.9,   -0.9,   -0.9,   -0.8,   -0.7,   -0.7,   -0.7,   -0.6,   -0.6,   -0.7,   -0.7,  999.0,  999.0,   -0.7,   -0.7,  999.0,  999.0
2001/06/22 06:40,   -3.3,   -3.4,   -1.8,   -2.2,   -2.4,   -4.1,   -3.5,   -3.0,   -3.9,   -4.4,   -3.9,   -4.2,   -4.0,   -3.8,   -3.0,   -3.0,   -3.1,   -3.0,   -3.1,   -3.1,   -2.9,   -2.7,   -2.4,   -2.5,   -1.8,   -1.4,   -1.0,   -0.9,   -0.8,   -0.8,   -0.9,   -0.8,   -0.9,   -1.5,   -1.7,   -1.6,   -1.6,   -1.4,   -1.4,   -1.4,   -1.4,   -1.3,   -1.3,   -1.2,   -1.0,   -1.0,   -1.0,   -0.9,   -1.0,   -0.9,   -0.8,   -0.8,   -0.7,  999.0,  999.0,   -0.6,   -0.7,   -0.6,   -0.6,   -0.5,   -0.5,  999.0,   -0.6
2001/06/22 06:50,   -3.5,   -2.6,   -0.7,   -1.9,   -2.5,   -3.2,   -3.4,  999.0,   -3.2,   -3.7,   -3.4,   -3.5,   -3.7,   -2.8,   -2.7,   -2.6,   -2.6,   -2.3,   -2.3,   -2.0,   -0.6,   -1.3,   -1.2,   -1.1,   -1.2,   -1.0,   -0.8,   -0.8,   -0.7,   -0.6,   -0.6,   -0.5,   -0.4,   -0.2,   -0.3,  999.0,  999.0,  999.0,  999.0,  999.0,  999.0,  999.0,  999.0,  999.0,  999.0,  999.0,  999.0,  999.0,  999.0,  999.0,  999.0,  999.0,  999.0,  999.0,  999.0,   -1.0,   -1.0,  999.0,  999.0,   -1.0,   -0.8,  999.0,  999.0
2001/06/22 07:00,   -0.0,   -0.1,   -0.0,    0.0,    0.1,   -2.0,   -2.4,   -0.9,   -1.4,    0.1,  999.0,  999.0,  999.0,  999.0,   -1.7,   -1.9,   -2.0,   -2.2,   -2.4,   -1.8,   -1.6,   -1.4,   -1.4,   -1.3,   -1.2,   -1.1,   -1.1,   -0.9,   -0.8,   -0.8,   -0.8,   -0.8,   -0.6,   -0.6,   -0.6,   -0.5,   -0.3,   -0.3,  999.0,  999.0,  999.0,  999.0,  999.0,  999.0,  999.0,  999.0,  999.0,  999.0,  999.0,  999.0,  999.0,  999.0,  999.0,  999.0,  999.0,  999.0,  999.0,  999.0,  999.0,   -0.6,   -0.7,   -0.7,   -0.7
2001/06/22 07:10,    0.0,   -0.4,    0.0,    0.0,    0.1,  999.0,   -2.0,    0.0,   -1.2,  999.0,   -0.8,   -4.2,   -3.9,   -3.6,   -3.7,   -3.7,   -3.8,   -4.1,   -4.3,   -4.2,   -3.5,   -3.9,   -3.3,   -2.6,   -2.9,   -2.4,   -2.3,   -2.3,   -2.4,   -2.4,   -2.3,   -2.2,   -2.1,   -1.9,   -1.8,   -1.7,   -1.7,   -1.4,   -1.4,   -1.3,   -1.3,   -1.3,   -1.3,   -1.3,   -1.4,   -1.2,   -1.4,   -1.6,   -1.6,   -1.5,   -1.3,   -1.5,   -1.3,   -1.2,   -1.2,   -0.9,   -0.6,  999.0,  999.0,  999.0,  999.0,  999.0,  999.0
2001/06/22 07:20,   -3.8,   -3.0,   -1.6,   -2.5,   -3.7,   -3.6,   -4.1,   -4.8,   -4.4,   -4.5,   -4.6,   -4.3,   -4.1,   -4.1,   -4.5,   -4.9,   -4.7,   -4.7,   -4.5,   -4.9,   -4.8,   -4.6,   -4.2,   -3.8,   -3.3,   -2.8,   -2.2,   -2.1,   -2.0,   -2.0,   -1.6,   -1.4,   -1.3,   -1.0,   -1.1,   -1.1,   -1.1,   -1.1,   -1.1,   -1.1,   -1.1,   -1.2,   -1.1,   -1.1,   -1.2,   -1.3,   -1.2,   -1.1,   -1.1,   -1.2,   -1.0,   -1.1,   -1.1,  999.0,   -0.6,  999.0,  999.0,  999.0,  999.0,  999.0,  999.0,  999.0,  999.0
2001/06/22 07:30,   -4.5,   -4.6,   -4.7,   -4.8,   -4.6,   -4.8,   -4.7,   -4.5,   -4.4,   -4.2,   -4.1,   -4.1,   -4.0,   -3.8,   -4.0,   -4.1,   -4.2,   -4.3,   -4.4,   -4.5,   -4.7,   -4.7,   -4.6,   -4.2,   -3.2,   -2.4,   -2.0,   -1.8,   -1.6,   -1.5,   -1.4,   -1.4,   -1.4,   -1.4,   -1.3,   -1.2,   -1.2,   -1.2,   -1.1,   -1.1,   -1.1,   -1.1,   -1.0,   -0.9,   -0.9,   -0.8,   -0.9,   -0.9,   -0.8,   -0.8,   -0.9,   -0.8,  999.0,  999.0,  999.0,  999.0,  999.0,  999.0,  999.0,  999.0,  999.0,  999.0,  999.0
2001/06/22 07:40,   -5.8,   -6.0,   -6.0,   -5.3,   -5.7,   -5.3,   -5.3,   -5.4,   -5.6,   -5.6,   -5.7,   -5.8,   -5.7,   -5.8,   -5.8,   -5.8,   -5.9,   -6.1,   -6.0,   -6.0,   -5.9,   -6.0,   -5.9,   -3.9,   -2.4,   -1.9,   -1.7,   -1.6,   -1.5,   -1.4,   -1.4,   -1.4,   -1.3,   -1.3,   -1.3,   -1.3,   -1.3,   -1.2,   -1.2,   -1.1,   -1.1,   -1.1,   -1.0,   -0.9,   -0.8,   -0.8,   -0.8,   -1.0,   -1.1,   -1.1,  999.0,  999.0,  999.0,  999.0,  999.0,  999.0,  999.0,  999.0,  999.0,  999.0,  999.0,  999.0,  999.0
2001/06/22 07:50,   -5.2,   -5.2,   -5.2,   -5.2,   -5.1,   -5.1,   -5.1,   -5.3,   -5.3,   -5.3,   -5.3,   -5.2,   -5.2,   -5.2,   -5.1,   -5.0,   -5.0,   -4.9,   -4.8,   -4.7,   -4.6,   -4.5,   -4.5,   -4.2,   -2.5,   -1.7,   -1.4,   -1.3,   -1.3,   -1.3,   -1.3,   -1.3,   -1.3,   -1.3,   -1.4,   -1.4,   -1.3,   -1.3,   -1.2,   -1.2,   -1.1,   -1.1,   -1.0,   -0.9,   -0.9,   -0.9,   -0.9,   -1.0,   -1.1,   -1.1,   -1.2,   -1.0,  999.0,  999.0,  999.0,  999.0,  999.0,  999.0,  999.0,  999.0,  999.0,  999.0,  999.0
2001/06/22 08:00,   -3.9,   -3.9,   -3.9,   -3.8,   -3.7,   -3.8,   -3.7,   -3.6,   -3.6,   -3.5,   -3.5,   -3.6,   -3.4,   -3.4,   -3.4,   -3.4,   -3.3,   -3.2,   -3.2,   -3.4,   -3.4,   -3.3,   -3.3,   -3.1,   -2.5,   -1.5,   -1.5,   -1.4,   -1.3,   -1.3,   -1.3,   -1.1,   -1.1,   -1.3,   -1.3,   -1.3,   -1.2,   -1.1,   -1.0,   -1.0,   -0.9,   -0.8,   -0.9,   -0.8,   -0.9,   -0.8,   -0.8,  999.0,   -0.7,  999.0,  999.0,  999.0,  999.0,  999.0,  999.0,  999.0,  999.0,  999.0,  999.0,  999.0,  999.0,  999.0,  999.0
2001/06/22 08:10,   -3.2,   -3.2,   -3.1,   -3.3,   -3.2,   -3.0,   -3.2,   -3.0,   -3.4,   -3.5,   -3.5,   -3.3,   -3.3,   -3.5,   -3.6,   -3.6,   -3.6,   -3.7,   -3.7,   -3.9,   -3.6,   -3.6,   -3.6,   -3.3,   -2.3,   -1.7,   -1.4,   -1.4,   -1.2,   -1.0,   -1.0,   -1.0,   -0.9,   -0.9,   -1.2,   -1.3,   -1.2,   -1.1,   -1.0,   -0.8,   -0.7,   -0.9,   -0.7,   -0.6,  999.0,  999.0,  999.0,  999.0,  999.0,  999.0,  999.0,  999.0,  999.0,  999.0,  999.0,  999.0,  999.0,  999.0,  999.0,  999.0,  999.0,  999.0,  999.0
2001/06/22 08:20,   -0.8,   -0.7,   -2.7,   -2.7,   -2.6,   -2.9,   -3.0,   -3.1,   -3.2,   -3.1,   -3.3,   -3.1,   -3.2,   -3.2,   -3.3,   -3.0,   -3.1,   -3.1,   -3.4,   -3.4,   -3.4,   -3.6,   -3.6,   -3.8,   -3.0,   -1.8,   -1.4,   -1.2,   -1.0,   -0.9,   -0.8,   -0.6,   -0.5,   -0.5,  999.0,  999.0,  999.0,  999.0,  999.0,  999.0,  999.0,  999.0,  999.0,  999.0,  999.0,  999.0,  999.0,  999.0,  999.0,  999.0,  999.0,  999.0,  999.0,  999.0,  999.0,  999.0,  999.0,  999.0,  999.0,  999.0,  999.0,  999.0,  999.0
2001/06/22 08:30,   -1.7,  999.0,   -3.7,   -3.5,   -3.1,   -3.1,   -3.3,   -3.4,   -1.5,   -3.4,   -3.5,   -3.5,   -3.6,   -3.6,   -3.6,   -3.6,   -3.6,   -3.5,   -3.5,   -3.4,   -3.3,   -3.4,   -3.3,   -3.1,   -1.9,   -1.3,   -1.1,   -1.0,   -0.9,   -0.8,   -0.7,   -0.6,   -0.5,   -0.4,  999.0,  999.0,  999.0,  999.0,  999.0,  999.0,  999.0,  999.0,  999.0,  999.0,  999.0,  999.0,  999.0,  999.0,  999.0,  999.0,  999.0,  999.0,  999.0,  999.0,  999.0,  999.0,  999.0,  999.0,  999.0,  999.0,  999.0,  999.0,  999.0
2001/06/22 08:40,   -0.2,   -0.5,   -0.2,   -0.2,   -0.7,   -1.9,   -1.5,   -0.8,    0.2,   -0.6,   -1.3,   -1.9,   -1.5,   -1.8,   -2.0,   -2.0,   -1.8,   -1.7,   -2.2,   -2.2,   -1.9,   -1.9,   -1.9,   -1.9,   -1.4,   -1.1,   -1.0,   -0.9,   -0.9,   -1.0,   -1.3,   -1.0,   -1.0,  999.0,  999.0,  999.0,  999.0,  999.0,  999.0,   -0.6,   -0.4,   -0.1,  999.0,  999.0,  999.0,  999.0,  999.0,  999.0,  999.0,  999.0,  999.0,  999.0,  999.0,  999.0,  999.0,  999.0,  999.0,  999.0,  999.0,  999.0,  999.0,  999.0,  999.0
2001/06/22 08:50,   -0.0,   -0.2,    0.1,    0.1,    0.2,    0.0,   -0.1,    0.0,    0.7,    0.2,    0.1,    0.6,    0.2,   -1.6,   -3.0,   -2.7,   -2.0,   -2.7,   -2.5,   -2.5,   -2.5,   -2.2,   -2.1,   -2.0,   -1.9,   -1.2,   -0.9,   -0.8,   -0.8,   -0.5,   -0.6,  999.0,  999.0,  999.0,  999.0,  999.0,  999.0,  999.0,  999.0,  999.0,    0.0,  999.0,  999.0,  999.0,  999.0,  999.0,  999.0,  999.0,  999.0,  999.0,  999.0,  999.0,  999.0,  999.0,  999.0,  999.0,  999.0,  999.0,  999.0,  999.0,  999.0,  999.0,  999.0
2001/06/22 09:00,   -0.0,   -0.0,   -0.1,   -0.1,    0.1,    0.3,    0.2,    0.0,  999.0,    0.0,    0.1,    0.1,   -0.0,   -0.0,  999.0,  999.0,   -2.4,   -1.2,   -0.9,   -0.7,   -0.8,   -1.4,   -1.8,   -1.9,   -1.6,   -1.0,   -1.1,   -1.4,   -1.3,   -1.1,   -0.8,   -0.5,   -0.7,   -0.6,   -0.6,   -0.5,   -0.1,  999.0,  999.0,  999.0,   -0.0,  999.0,  999.0,  999.0,  999.0,  999.0,  999.0,  999.0,  999.0,  999.0,  999.0,  999.0,  999.0,  999.0,  999.0,  999.0,  999.0,  999.0,  999.0,  999.0,  999.0,  999.0,  999.0
2001/06/22 09:10,   -0.3,   -0.6,   -0.1,   -0.1,   -0.0,    0.3,   -0.2,   -0.2,   -1.6,    0.0,   -0.7,   -1.3,   -1.2,   -1.3,   -1.7,  999.0,   -2.8,   -2.5,   -2.6,   -2.0,   -2.0,   -2.0,   -1.8,   -1.5,   -1.4,   -1.5,   -1.1,   -1.0,   -1.3,   -1.2,   -0.8,   -0.7,   -0.6,   -0.7,   -0.8,   -0.8,   -0.8,   -0.4,   -0.3,   -0.3,  999.0,  999.0,  999.0,  999.0,  999.0,  999.0,  999.0,  999.0,  999.0,  999.0,  999.0,  999.0,  999.0,  999.0,  999.0,  999.0,  999.0,  999.0,  999.0,  999.0,  999.0,  999.0,  999.0
2001/06/22 09:20,   -0.0,   -0.3,   -0.2,   -2.5,   -3.5,   -3.2,   -2.5,   -2.8,   -1.4,  999.0,   -0.2,   -1.8,   -2.6,   -3.2,   -3.2,   -3.0,   -2.5,   -2.9,   -2.8,   -2.6,   -1.9,   -2.2,   -1.9,   -2.0,   -2.1,   -1.8,   -1.7,   -1.6,   -1.5,   -1.4,   -1.6,   -1.3,   -1.0,   -0.8,   -1.4,   -1.3,   -1.2,   -0.8,   -0.5,   -0.1,    0.1,  999.0,  999.0,  999.0,  999.0,  999.0,  999.0,  999.0,  999.0,  999.0,  999.0,  999.0,  999.0,  999.0,  999.0,  999.0,  999.0,  999.0,  999.0,  999.0,  999.0,  999.0,  999.0
2001/06/22 09:30,   -4.6,   -4.9,   -5.8,   -5.1,   -5.6,   -5.2,   -4.9,   -4.8,   -4.0,   -4.1,   -3.5,   -4.1,   -4.7,   -4.9,   -4.7,   -4.6,   -4.1,   -4.4,   -4.6,   -4.0,   -3.8,   -3.5,   -3.5,   -3.4,   -2.7,   -1.9,   -1.5,   -1.5,   -1.3,   -1.3,   -1.0,   -0.9,   -0.9,   -1.2,   -1.5,   -1.4,   -1.3,   -1.1,   -0.8,   -0.6,   -0.2,   -0.4,  999.0,  999.0,  999.0,  999.0,  999.0,  999.0,  999.0,  999.0,  999.0,  999.0,  999.0,  999.0,  999.0,  999.0,  999.0,  999.0,  999.0,  999.0,  999.0,  999.0,  999.0
2001/06/22 09:40,   -3.9,   -4.1,   -4.0,   -4.2,   -3.8,   -4.1,   -4.1,   -4.1,   -4.3,   -3.7,   -2.0,   -4.7,   -4.6,   -4.4,   -4.0,   -4.8,   -4.4,   -3.8,   -3.7,   -3.8,   -3.5,   -3.5,   -3.5,   -3.7,   -3.2,   -1.8,   -1.3,   -1.2,   -1.1,   -1.0,   -0.9,   -0.7,   -0.6,   -0.6,   -0.7,   -0.6,   -0.3,  999.0,  999.0,  999.0,  999.0,   -0.2,  999.0,  999.0,  999.0,  999.0,  999.0,  999.0,  999.0,  999.0,  999.0,  999.0,  999.0,  999.0,  999.0,  999.0,  999.0,  999.0,  999.0,  999.0,  999.0,  999.0,  999.0
2001/06/22 09:50,   -5.2,   -5.0,   -5.0,   -4.8,   -4.6,   -4.7,   -4.9,   -4.5,   -4.3,   -4.3,   -3.7,   -1.5,   -4.2,   -3.5,   -3.7,   -3.4,   -3.1,   -2.7,   -2.3,   -2.0,   -2.6,   -2.3,   -2.3,   -2.0,   -1.8,   -1.3,   -1.0,   -1.0,   -1.1,   -1.0,   -0.7,   -0.6,   -0.6,   -0.6,   -0.6,  999.0,  999.0,  999.0,  999.0,  999.0,  999.0,  999.0,  999.0,  999.0,  999.0,  999.0,  999.0,  999.0,  999.0,  999.0,  999.0,  999.0,  999.0,  999.0,  999.0,  999.0,  999.0,  999.0,  999.0,  999.0,  999.0,  999.0,  999.0
2001/06/22 10:00,   -3.8,   -3.8,   -4.3,   -4.7,   -4.6,   -4.4,   -3.4,   -3.9,   -3.9,   -3.2,   -1.7,   -2.1,   -3.3,   -3.5,   -3.4,   -3.5,   -3.4,   -3.5,   -3.4,   -4.0,   -3.5,   -4.5,   -3.9,   -3.7,   -3.7,   -2.0,   -1.3,   -1.0,   -0.9,   -1.2,   -1.1,   -1.0,   -1.1,   -1.0,   -1.1,   -1.1,  999.0,   -1.7,   -1.6,   -1.5,  999.0,   -0.8,   -1.0,   -0.9,   -0.5,  999.0,  999.0,  999.0,  999.0,  999.0,  999.0,  999.0,  999.0,  999.0,  999.0,  999.0,  999.0,  999.0,  999.0,  999.0,  999.0,  999.0,  999.0
2001/06/22 10:10,   -3.9,   -3.7,   -3.2,   -3.5,   -3.3,   -3.5,   -2.7,   -2.6,   -2.2,   -1.7,   -0.7,   -1.4,   -1.4,   -2.1,   -2.6,   -2.3,   -2.5,   -1.9,   -1.3,   -2.4,   -2.3,   -2.2,   -2.0,   -2.1,   -1.9,   -1.5,   -0.9,   -0.7,   -0.7,   -0.7,   -0.7,   -0.9,  999.0,  999.0,  999.0,  999.0,  999.0,  999.0,  999.0,  999.0,  999.0,   -0.6,  999.0,  999.0,  999.0,  999.0,  999.0,  999.0,  999.0,  999.0,  999.0,  999.0,  999.0,  999.0,  999.0,  999.0,  999.0,  999.0,  999.0,  999.0,  999.0,  999.0,  999.0
2001/06/22 10:20,   -0.0,  999.0,  999.0,   -0.9,   -1.3,   -0.3,   -0.1,   -0.0,    0.2,    0.1,    0.0,    0.1,    0.2,  999.0,  999.0,  999.0,  999.0,   -0.1,   -0.2,   -1.8,   -1.5,   -1.0,   -1.2,   -1.1,   -1.2,   -1.3,   -1.1,   -1.0,   -1.2,   -1.5,   -1.8,   -1.6,   -1.4,   -1.3,   -1.1,   -1.2,   -0.9,   -1.1,   -1.0,   -1.0,   -0.7,   -0.3,   -0.1,  999.0,  999.0,  999.0,  999.0,  999.0,  999.0,  999.0,  999.0,  999.0,  999.0,  999.0,  999.0,  999.0,  999.0,  999.0,  999.0,  999.0,  999.0,  999.0,  999.0
2001/06/22 10:30,   -0.1,   -0.1,   -1.4,   -1.4,   -1.1,   -2.0,   -1.2,   -1.4,   -2.4,   -2.4,   -0.3,   -2.3,   -2.1,   -2.7,   -4.3,   -3.9,   -3.5,   -3.9,   -3.7,   -3.6,   -3.4,   -3.3,   -3.8,   -3.5,   -3.7,   -2.1,   -1.5,   -1.4,   -1.3,   -1.3,   -1.3,   -1.0,   -1.1,   -1.3,   -1.2,   -1.2,   -1.3,   -1.3,  999.0,   -1.1,   -1.2,   -1.1,   -0.4,   -0.2,  999.0,  999.0,  999.0,  999.0,  999.0,  999.0,  999.0,  999.0,  999.0,  999.0,  999.0,  999.0,  999.0,  999.0,  999.0,  999.0,  999.0,  999.0,  999.0
2001/06/22 10:40,   -3.4,   -4.2,   -4.4,   -4.7,   -4.2,   -4.2,   -4.0,   -4.6,   -3.7,   -3.2,   -3.2,   -3.8,   -3.5,   -2.9,   -2.8,   -2.8,   -2.6,   -2.2,   -2.1,   -2.8,   -1.5,   -0.5,   -1.1,   -1.4,   -1.3,   -1.2,   -1.0,   -0.9,   -1.0,   -0.8,   -0.8,   -0.6,   -0.4,  999.0,  999.0,  999.0,  999.0,  999.0,  999.0,  999.0,  999.0,  999.0,  999.0,  999.0,  999.0,  999.0,  999.0,  999.0,  999.0,  999.0,  999.0,  999.0,  999.0,  999.0,  999.0,  999.0,  999.0,  999.0,  999.0,  999.0,  999.0,  999.0,  999.0
2001/06/22 10:50,   -1.3,   -2.8,   -1.3,   -3.9,   -3.5,   -3.4,   -3.4,   -3.2,   -4.6,   -3.4,   -2.6,   -3.5,   -3.9,   -4.0,   -3.8,   -3.9,   -3.7,   -4.1,   -3.5,   -2.9,   -3.2,   -3.1,   -2.9,   -3.2,   -2.7,   -1.5,   -1.0,   -0.8,   -0.8,   -0.7,   -0.6,   -0.5,   -0.5,   -0.4,   -0.5,  999.0,  999.0,  999.0,  999.0,  999.0,  999.0,  999.0,  999.0,  999.0,  999.0,  999.0,  999.0,  999.0,  999.0,  999.0,  999.0,  999.0,  999.0,  999.0,  999.0,  999.0,  999.0,  999.0,  999.0,  999.0,  999.0,  999.0,  999.0
2001/06/22 11:00,   -0.2,   -0.4,   -1.0,   -1.4,   -1.3,   -1.3,   -0.4,   -0.8,   -0.8,   -1.1,   -0.0,   -0.0,   -2.9,   -4.1,   -3.1,   -2.8,   -2.6,   -4.3,   -2.6,   -1.3,   -1.4,   -1.0,   -1.3,   -1.7,   -2.1,   -1.7,   -1.0,   -0.8,   -0.8,   -0.7,   -0.8,   -0.7,   -0.7,   -0.6,  999.0,   -1.1,   -1.3,   -1.3,   -0.4,  999.0,   -0.5,  999.0,  999.0,  999.0,  999.0,  999.0,  999.0,  999.0,  999.0,  999.0,  999.0,  999.0,  999.0,  999.0,  999.0,  999.0,  999.0,  999.0,  999.0,  999.0,  999.0,  999.0,  999.0
2001/06/22 11:10,   -0.3,   -0.3,   -0.2,   -4.2,   -5.2,   -5.3,   -3.5,   -4.5,   -5.2,   -5.0,   -3.0,   -3.8,   -4.4,   -5.2,   -5.7,   -4.7,   -5.2,   -5.4,   -3.0,   -2.2,   -1.6,   -0.8,   -0.8,   -0.7,   -0.4,   -0.3,   -0.3,   -0.4,  999.0,  999.0,  999.0,  999.0,  999.0,  999.0,  999.0,  999.0,  999.0,  999.0,  999.0,  999.0,  999.0,   -0.6,   -0.4,  999.0,  999.0,  999.0,  999.0,  999.0,  999.0,  999.0,  999.0,  999.0,  999.0,  999.0,  999.0,  999.0,  999.0,  999.0,  999.0,  999.0,  999.0,  999.0,  999.0
2001/06/22 11:20,   -0.3,   -0.4,   -0.0,   -0.1,   -0.3,    0.0,    0.1,    0.1,   -0.1,  999.0,   -0.1,   -0.0,  999.0,    0.1,  999.0,  999.0,  999.0,  999.0,    0.3,    0.2,    0.1,    0.2,    0.2,   -0.0,   -0.4,   -0.6,   -0.9,   -1.0,   -1.9,   -1.9,   -1.7,   -1.7,   -1.7,   -1.7,   -1.6,   -1.5,   -1.2,   -0.9,   -0.7,  999.0,  999.0,   -0.1,  999.0,  999.0,  999.0,  999.0,  999.0,  999.0,  999.0,  999.0,  999.0,  999.0,  999.0,  999.0,  999.0,  999.0,  999.0,  999.0,  999.0,  999.0,  999.0,  999.0,  999.0
2001/06/22 11:30,   -0.2,   -0.1,   -0.1,   -0.1,   -0.1,    0.1,    0.1,    0.0,   -0.1,    0.0,    0.1,  999.0,   -0.0,  999.0,  999.0,  999.0,  999.0,  999.0,  999.0,    0.3,  999.0,    0.2,   -0.0,    0.1,    0.2,   -0.2,   -0.3,   -1.0,   -1.1,   -0.9,   -0.9,   -1.0,   -0.8,   -1.4,   -1.1,   -1.1,   -1.1,   -1.0,   -0.8,   -0.8,   -0.6,   -0.8,   -0.9,   -0.7,   -0.4,  999.0,  999.0,  999.0,  999.0,  999.0,  999.0,  999.0,  999.0,  999.0,  999.0,  999.0,  999.0,  999.0,  999.0,  999.0,  999.0,  999.0,  999.0
2001/06/22 11:40,   -0.5,   -0.1,   -0.2,   -0.3,   -0.2,   -0.3,   -0.0,    0.1,    0.2,   -0.1,    0.1,  999.0,    0.3,  999.0,  999.0,  999.0,  999.0,  999.0,    0.2,   -0.0,    0.2,    0.1,    0.1,    0.0,   -0.1,   -0.7,   -0.7,   -0.7,   -0.7,   -0.6,   -0.5,   -0.5,  999.0,  999.0,  999.0,  999.0,   -1.1,   -0.8,  999.0,  999.0,   -0.7,   -3.8,   -3.9,  999.0,  999.0,  999.0,  999.0,  999.0,  999.0,  999.0,  999.0,  999.0,  999.0,  999.0,  999.0,  999.0,  999.0,  999.0,  999.0,  999.0,  999.0,  999.0,  999.0
2001/06/22 11:50,   -0.3,   -0.3,   -0.8,   -0.4,   -0.5,   -0.2,   -0.4,   -0.1,    0.0,    0.1,   -0.1,   -0.1,   -0.1,  999.0,  999.0,  999.0,    0.2,  999.0,  999.0,    0.0,   -0.0,  999.0,   -0.0,   -0.0,   -0.1,   -0.2,  999.0,  999.0,  999.0,  999.0,  999.0,  999.0,  999.0,  999.0,  999.0,  999.0,  999.0,  999.0,  999.0,  999.0,  999.0,  999.0,  999.0,  999.0,   -0.0,   -1.2,   -1.0,   -1.0,   -1.0,   -1.0,   -0.9,   -1.0,   -1.0,   -0.9,   -0.9,   -0.9,   -0.9,   -0.9,   -1.0,   -0.9,   -0.8,  999.0,  999.0
2001/06/22 12:00,   -0.0,   -0.2,    0.0,    0.2,    0.2,    0.1,   -0.1,   -0.1,   -0.3,   -0.4,  999.0,    0.2,    0.3,  999.0,  999.0,  999.0,    0.2,  999.0,    0.1,    0.1,  999.0,    0.2,   -0.0,   -0.1,   -0.1,   -0.1,  999.0,  999.0,  999.0,  999.0,  999.0,  999.0,  999.0,  999.0,  999.0,  999.0,  999.0,   -1.4,   -1.4,   -1.3,   -1.2,   -1.1,   -1.1,   -0.9,   -1.0,   -1.1,   -1.1,   -1.0,   -1.1,   -1.1,   -1.0,   -1.0,   -0.9,   -0.9,  999.0,  999.0,  999.0,  999.0,  999.0,  999.0,  999.0,  999.0,  999.0
2001/06/22 12:10,   -0.4,   -0.3,   -0.1,   -0.2,   -0.1,   -0.1,   -0.1,   -0.1,    0.2,   -0.2,   -0.8,   -0.4,   -0.4,   -0.1,   -0.2,  999.0,  999.0,  999.0,   -0.0,   -0.2,  999.0,    0.2,   -0.0,   -0.1,   -0.1,   -0.4,   -1.3,   -1.1,   -1.3,   -1.3,   -1.3,   -1.3,   -1.1,   -1.0,   -1.1,   -1.1,   -1.2,   -1.1,   -1.1,   -1.0,   -1.0,   -1.0,   -0.8,   -0.9,   -0.9,   -0.9,   -0.9,   -0.9,   -1.0,   -0.9,   -1.0,   -1.0,   -0.9,   -1.1,   -1.1,   -0.9,   -0.9,   -0.8,   -0.8,   -0.9,   -1.0,   -0.7,   -0.8
2001/06/22 12:20,   -0.3,   -0.2,   -0.3,   -0.2,   -0.1,   -0.1,    0.0,    0.2,    0.2,    0.1,   -0.1,   -0.3,   -0.4,   -0.5,   -0.5,  999.0,  999.0,    0.0,   -0.0,  999.0,  999.0,  999.0,    0.3,    0.2,   -0.3,   -0.9,   -0.6,   -0.4,   -0.7,   -0.9,   -0.8,   -0.7,   -0.4,   -0.7,   -0.8,   -0.8,   -0.9,   -1.0,   -0.9,   -0.9,   -0.9,   -0.8,   -0.8,   -0.7,   -0.8,   -0.8,   -0.9,   -0.9,   -0.9,   -0.8,   -0.8,   -0.8,   -0.8,   -0.9,   -0.8,   -0.8,   -0.7,   -0.8,   -0.7,   -0.8,   -1.0,  999.0,  999.0
2001/06/22 12:30,   -0.2,    0.1,    0.2,    0.1,    0.3,    0.2,    0.0,    0.1,   -0.1,   -0.1,  999.0,   -0.3,   -0.2,   -0.2,    0.2,  999.0,  999.0,    0.2,    0.2,  999.0,    0.1,    0.2,    0.2,    0.1,    0.1,    0.2,    0.3,   -0.5,   -0.9,   -1.0,   -1.0,   -0.8,   -0.7,   -0.8,   -0.8,   -0.8,   -0.7,   -0.7,   -0.7,   -0.7,   -0.7,   -0.7,   -0.7,   -0.8,   -0.8,   -0.7,   -0.7,   -0.7,   -0.7,   -0.8,   -0.8,   -0.8,   -0.8,   -0.8,   -0.8,   -0.8,   -0.8,   -0.8,   -0.8,   -0.8,   -0.7,   -0.8,   -0.7
2001/06/22 12:40,   -0.2,   -0.0,    0.2,   -0.0,   -0.2,   -0.2,   -0.3,   -0.2,   -0.3,   -0.3,   -0.1,   -0.0,    0.3,    0.3,    0.3,  999.0,    0.1,  999.0,  999.0,  999.0,    0.1,    0.3,    0.0,   -0.1,   -0.0,   -0.1,   -0.0,   -0.3,   -0.9,   -1.0,   -1.1,   -1.2,   -1.2,   -1.1,   -1.1,   -1.1,   -1.1,   -1.1,   -1.1,   -1.1,   -1.1,   -1.1,   -1.0,   -1.1,   -1.1,   -1.1,   -1.1,   -1.0,   -1.0,   -1.0,   -1.0,   -1.0,   -0.9,   -0.9,   -0.9,   -0.9,   -0.9,   -0.8,   -0.9,   -0.8,   -0.7,   -0.7,   -0.7
2001/06/22 12:50,   -0.2,   -0.0,   -0.2,   -0.2,   -0.0,    0.1,    0.1,   -0.0,    0.1,    0.1,    0.4,    0.0,  999.0,    0.1,   -0.3,   -0.1,    0.0,    0.1,    0.1,  999.0,    0.1,  999.0,  999.0,  999.0,   -0.2,   -0.1,   -0.5,   -1.1,   -1.3,   -1.3,   -1.3,   -1.3,   -1.3,   -1.3,   -1.2,   -1.2,   -1.2,   -1.1,   -1.1,   -1.0,   -1.0,   -1.0,   -1.0,   -0.9,   -0.9,   -0.9,   -0.9,   -0.9,   -0.9,   -0.9,   -0.9,   -0.9,   -0.9,   -0.9,   -1.0,   -1.0,   -1.0,   -1.0,   -0.9,   -0.9,   -0.8,   -0.7,   -0.5
2001/06/22 13:00,   -0.5,   -0.5,   -0.3,  999.0,   -0.6,   -0.4,   -0.1,    0.1,  999.0,    0.0,  999.0,   -0.2,   -0.3,   -0.5,   -0.3,  999.0,   -0.1,    0.1,  999.0,  999.0,   -0.5,  999.0,  999.0,  999.0,   -0.2,   -0.1,   -0.3,   -1.2,   -1.5,   -1.4,   -1.3,   -1.3,   -1.2,   -1.2,   -1.2,   -1.2,   -1.1,   -1.1,   -1.1,   -1.1,   -1.2,   -1.1,   -1.1,   -1.1,   -1.1,   -1.1,   -1.0,   -1.0,   -1.0,   -1.0,   -1.0,   -1.0,   -0.9,   -0.9,   -1.0,   -0.9,   -0.9,   -0.9,   -0.9,   -0.9,   -0.9,   -0.8,   -0.8
2001/06/22 13:10,   -0.3,  999.0,   -0.2,   -0.1,   -0.3,   -0.3,   -0.1,    0.2,  999.0,  999.0,  999.0,   -0.0,    0.3,    0.3,  999.0,  999.0,   -0.5,   -0.6,  999.0,   -0.5,  999.0,  999.0,  999.0,  999.0,    0.0,    0.0,   -0.0,   -0.3,   -1.0,   -1.0,   -1.1,   -1.0,   -1.1,   -1.1,   -1.1,   -1.1,   -1.1,   -1.1,   -1.1,   -1.1,   -1.1,   -1.1,   -1.1,   -1.1,   -1.1,   -1.1,   -1.0,   -1.0,   -1.0,   -1.0,   -1.0,   -1.0,   -1.0,   -1.0,   -1.0,   -1.0,   -1.0,   -0.9,   -0.9,   -0.9,   -0.8,   -0.7,   -0.7
2001/06/22 13:20,   -0.3,   -0.1,   -0.1,   -0.4,   -0.5,   -0.7,   -0.5,   -0.6,   -0.8,   -0.5,   -0.2,   -0.4,   -0.0,   -0.1,  999.0,  999.0,   -0.4,  999.0,  999.0,  999.0,  999.0,  999.0,  999.0,  999.0,   -0.1,   -0.1,    0.1,   -0.6,   -1.0,   -1.1,   -1.1,   -1.1,   -1.0,   -1.0,   -1.0,   -1.0,   -1.0,   -1.1,   -1.1,   -1.0,   -1.0,   -1.0,   -1.1,   -1.2,   -1.2,   -1.2,   -1.2,   -1.2,   -1.2,   -1.2,   -1.2,   -1.1,   -1.0,   -0.9,   -0.9,   -0.8,   -0.8,   -0.8,   -0.8,   -0.7,   -0.6,   -0.5,   -0.4
2001/06/22 13:30,   -0.4,   -0.2,   -0.2,    0.1,    0.1,    0.4,    0.3,    0.1,    0.0,    0.1,   -0.3,   -0.2,    0.0,    0.2,  999.0,  999.0,   -0.2,  999.0,  999.0,   -0.1,  999.0,  999.0,  999.0,  999.0,   -0.0,   -0.0,   -0.0,   -0.9,   -1.2,   -1.2,   -1.1,   -1.1,   -1.2,   -1.1,   -1.1,   -1.2,   -1.2,   -1.2,   -1.2,   -1.2,   -1.2,   -1.2,   -1.2,   -1.1,   -1.1,   -1.1,   -1.1,   -1.1,   -1.0,   -1.0,   -0.9,   -0.9,   -0.9,   -0.9,   -0.8,   -0.8,   -0.8,   -0.8,   -0.8,   -0.8,   -0.7,   -0.9,   -0.8
2001/06/22 13:40,   -0.0,    0.3,    0.2,    0.1,    0.3,    0.1,   -0.1,   -0.3,   -0.0,   -0.1,    0.2,    0.4,    0.2,    0.2,  999.0,  999.0,    0.1,  999.0,  999.0,  999.0,  999.0,  999.0,  999.0,  999.0,  999.0,    0.1,    0.0,   -0.4,   -1.1,   -1.2,   -1.2,   -1.2,   -1.2,   -1.2,   -1.2,   -1.2,   -1.1,   -1.1,   -1.1,   -1.1,   -1.1,   -1.1,   -1.1,   -1.0,   -1.0,   -1.0,   -1.0,   -1.1,   -1.1,   -1.0,   -1.0,   -0.9,   -1.0,   -0.9,   -0.9,   -0.8,   -0.8,   -0.7,   -0.7,   -1.0,   -0.9,   -0.8,  999.0
2001/06/22 13:50,   -0.1,    0.3,  999.0,    0.0,    0.1,    0.0,    0.2,    0.1,   -0.1,   -0.3,   -0.3,   -0.4,   -0.2,   -0.0,   -0.1,   -0.0,    0.0,  999.0,   -0.4,   -0.2,  999.0,  999.0,  999.0,  999.0,  999.0,    0.2,    0.3,    0.2,   -0.0,   -0.7,  999.0,   -0.9,   -0.9,   -0.9,   -0.9,   -0.9,   -0.9,   -1.0,   -1.0,   -1.0,   -1.1,   -1.1,   -1.1,   -1.1,   -1.1,   -1.1,   -1.1,   -1.1,   -1.1,   -1.1,   -1.0,   -1.0,   -1.0,   -0.9,   -0.9,   -0.9,   -0.9,   -0.9,   -0.8,   -0.8,  999.0,  999.0,  999.0
2001/06/22 14:00,    0.0,    0.2,    0.2,    0.1,   -0.0,  999.0,    0.0,   -0.1,   -0.1,   -0.1,   -0.0,   -0.1,   -0.1,   -0.2,   -0.1,  999.0,  999.0,  999.0,  999.0,  999.0,  999.0,  999.0,  999.0,  999.0,  999.0,    0.2,  999.0,    0.3,    0.1,  999.0,   -1.0,   -0.9,   -1.0,   -1.0,   -1.0,   -1.0,   -1.1,   -1.1,   -1.1,   -1.1,   -1.2,   -1.1,   -1.1,   -1.1,   -1.1,   -1.1,   -1.0,   -1.0,   -1.0,   -1.0,   -1.0,   -1.0,  999.0,  999.0,   -0.9,  999.0,  999.0,  999.0,  999.0,  999.0,  999.0,  999.0,  999.0
2001/06/22 14:10,   -0.3,    0.1,    0.1,    0.2,    0.0,    0.1,    0.2,   -0.2,   -0.1,   -0.1,    0.0,    0.0,   -0.1,   -0.3,   -0.3,   -0.1,    0.2,  999.0,  999.0,  999.0,  999.0,  999.0,  999.0,  999.0,  999.0,  999.0,  999.0,   -0.2,  999.0,  999.0,  999.0,   -0.9,   -0.8,   -0.9,   -1.0,   -1.1,   -1.1,   -1.1,   -1.1,   -1.1,   -1.1,   -1.1,   -1.1,   -1.0,   -1.1,   -1.0,   -1.0,   -1.0,   -1.0,   -1.0,   -1.0,   -1.0,   -1.0,   -1.1,   -1.0,   -1.0,   -1.0,   -0.8,   -0.8,   -0.8,   -0.8,   -0.6,   -0.8
2001/06/22 14:20,   -0.4,    0.1,    0.4,    0.1,   -0.2,   -0.1,    0.5,    0.2,   -0.4,   -0.1,   -0.2,   -0.3,   -0.6,   -0.7,   -0.3,  999.0,    0.2,  999.0,  999.0,  999.0,  999.0,  999.0,  999.0,  999.0,  999.0,  999.0,  999.0,  999.0,  999.0,  999.0,  999.0,  999.0,  999.0,   -1.1,   -1.0,   -1.0,   -1.1,   -1.1,   -1.2,   -1.2,   -1.1,   -1.1,   -1.1,   -1.1,   -1.1,   -1.0,   -1.0,   -1.0,   -1.0,   -1.0,   -0.9,   -0.9,   -1.0,   -0.9,   -0.9,   -0.8,   -0.7,  999.0,  999.0,  999.0,  999.0,  999.0,  999.0
2001/06/22 14:30,   -0.3,   -0.1,   -0.4,   -0.2,   -0.5,   -0.1,   -0.4,   -0.5,   -0.0,   -0.1,    0.3,    0.0,   -0.4,   -0.4,  999.0,  999.0,  999.0,  999.0,  999.0,  999.0,  999.0,  999.0,  999.0,  999.0,  999.0,  999.0,  999.0,  999.0,   -1.1,   -1.1,   -1.0,   -1.1,   -1.1,   -1.2,   -1.1,   -1.2,   -1.1,   -1.1,   -1.0,   -1.0,   -1.0,   -0.9,   -0.8,   -0.8,  999.0,  999.0,  999.0,  999.0,  999.0,  999.0,  999.0,  999.0,  999.0,  999.0,  999.0,  999.0,  999.0,  999.0,  999.0,  999.0,  999.0,  999.0,  999.0
2001/06/22 14:40,    0.0,    0.4,    0.0,   -0.2,    0.0,    0.1,    0.1,   -0.1,   -0.0,   -0.2,   -0.1,   -0.1,    0.0,    0.1,  999.0,   -0.1,   -0.4,  999.0,  999.0,  999.0,   -0.1,  999.0,  999.0,  999.0,  999.0,   -0.1,  999.0,  999.0,  999.0,  999.0,   -1.0,   -1.0,   -0.9,   -1.0,   -1.0,   -1.0,   -1.0,   -0.9,   -0.9,   -0.8,   -0.8,  999.0,  999.0,  999.0,  999.0,  999.0,  999.0,  999.0,  999.0,  999.0,  999.0,  999.0,  999.0,  999.0,  999.0,  999.0,  999.0,  999.0,  999.0,  999.0,  999.0,  999.0,  999.0
2001/06/22 14:50,   -0.0,    0.2,    0.3,   -0.2,   -0.2,   -0.1,   -0.1,    0.1,   -0.1,   -0.0,   -0.2,   -0.1,   -0.1,    0.0,  999.0,  999.0,    0.2,  999.0,  999.0,    0.2,    0.1,  999.0,  999.0,  999.0,    0.2,    0.4,  999.0,  999.0,  999.0,  999.0,  999.0,  999.0,   -0.8,   -1.0,   -1.1,   -1.1,   -1.2,   -1.1,   -0.9,  999.0,  999.0,  999.0,  999.0,  999.0,  999.0,  999.0,  999.0,  999.0,  999.0,  999.0,  999.0,  999.0,  999.0,  999.0,  999.0,  999.0,  999.0,  999.0,  999.0,  999.0,  999.0,  999.0,  999.0
2001/06/22 15:00,    0.4,    0.3,    0.4,    0.4,    0.2,    0.1,    0.3,   -0.2,    0.2,    0.1,    0.1,    0.0,    0.3,  999.0,  999.0,  999.0,  999.0,  999.0,  999.0,  999.0,  999.0,  999.0,  999.0,  999.0,  999.0,    0.1,  999.0,  999.0,  999.0,  999.0,   -0.7,   -0.8,   -0.7,   -0.9,   -0.9,   -1.0,   -0.9,   -1.1,   -1.1,   -1.1,   -1.0,   -0.9,   -0.9,   -0.8,   -0.7,   -0.7,   -0.8,   -0.8,   -0.9,   -0.9,   -1.1,   -1.1,   -1.2,   -1.1,   -1.1,   -1.1,   -1.2,   -1.1,   -1.0,   -1.0,   -0.8,  999.0,  999.0
2001/06/22 15:10,    0.1,    0.4,    0.1,    0.0,   -0.3,   -0.2,   -0.0,    0.1,    0.1,    0.3,  999.0,   -0.1,   -0.1,  999.0,  999.0,   -0.1,  999.0,  999.0,  999.0,    0.3,  999.0,  999.0,  999.0,  999.0,  999.0,    0.1,  999.0,  999.0,  999.0,   -0.9,   -1.0,   -1.0,   -1.0,   -1.2,   -1.3,   -1.3,   -1.3,   -1.2,   -1.2,   -1.1,   -1.0,   -0.9,   -0.8,   -0.8,   -0.7,   -0.7,   -0.7,   -1.0,   -1.0,   -1.0,   -1.0,  999.0,  999.0,  999.0,  999.0,  999.0,  999.0,  999.0,  999.0,  999.0,  999.0,  999.0,  999.0
2001/06/22 15:20,    0.0,    0.5,    0.6,    0.0,    0.1,    0.0,    0.0,   -0.2,   -0.1,   -0.1,   -0.1,    0.0,    0.1,  999.0,  999.0,   -0.0,  999.0,  999.0,   -0.7,  999.0,  999.0,  999.0,  999.0,  999.0,  999.0,  999.0,  999.0,  999.0,  999.0,   -0.9,   -0.8,   -0.9,   -1.1,   -1.2,   -1.3,   -1.4,   -1.4,   -1.4,   -1.3,   -1.3,   -1.2,   -1.1,   -1.0,   -0.9,   -0.8,   -0.8,   -1.0,  999.0,  999.0,  999.0,  999.0,  999.0,  999.0,  999.0,  999.0,  999.0,  999.0,  999.0,   -0.9,  999.0,  999.0,  999.0,  999.0
2001/06/22 15:30,   -0.0,    0.4,   -0.2,    0.0,   -0.0,    0.1,    0.2,    0.1,    0.0,   -0.1,   -0.0,   -0.1,   -0.0,  999.0,  999.0,  999.0,  999.0,  999.0,  999.0,   -0.4,  999.0,  999.0,  999.0,  999.0,  999.0,  999.0,  999.0,  999.0,  999.0,   -1.0,   -0.9,   -1.1,   -1.2,   -1.3,   -1.4,   -1.5,   -1.4,   -1.4,   -1.3,   -1.2,   -1.1,   -0.9,   -0.8,   -0.7,   -0.6,   -0.6,  999.0,  999.0,  999.0,  999.0,  999.0,  999.0,  999.0,  999.0,  999.0,  999.0,  999.0,  999.0,  999.0,  999.0,  999.0,  999.0,  999.0
2001/06/22 15:40,   -0.0,    0.2,   -0.1,   -0.2,   -0.3,   -0.1,   -0.2,   -0.1,    0.0,   -0.2,   -0.1,    0.0,    0.0,  999.0,  999.0,  999.0,  999.0,  999.0,  999.0,  999.0,  999.0,  999.0,  999.0,  999.0,  999.0,  999.0,  999.0,  999.0,   -0.8,   -1.2,   -1.0,   -1.3,   -1.5,   -1.7,  999.0,   -1.4,   -1.7,  999.0,  999.0,  999.0,  999.0,  999.0,  999.0,  999.0,  999.0,  999.0,  999.0,  999.0,  999.0,  999.0,  999.0,  999.0,  999.0,  999.0,  999.0,  999.0,  999.0,  999.0,  999.0,  999.0,  999.0,  999.0,  999.0
2001/06/22 15:50,   -0.0,    0.2,   -0.2,   -0.4,   -0.3,    0.1,   -0.0,    0.0,   -0.0,  999.0,    0.1,    0.2,    0.3,    0.2,  999.0,  999.0,  999.0,  999.0,  999.0,  999.0,  999.0,  999.0,  999.0,  999.0,  999.0,  999.0,  999.0,  999.0,  999.0,  999.0,  999.0,  999.0,  999.0,  999.0,  999.0,  999.0,  999.0,  999.0,  999.0,  999.0,  999.0,  999.0,  999.0,  999.0,  999.0,  999.0,  999.0,  999.0,  999.0,  999.0,  999.0,  999.0,  999.0,  999.0,  999.0,  999.0,  999.0,  999.0,  999.0,  999.0,  999.0,  999.0,  999.0
2001/06/22 16:00,    0.0,   -0.1,   -0.5,   -0.2,   -0.4,    0.0,    0.1,   -0.1,   -0.1,    0.0,    0.1,    0.0,   -0.0,  999.0,  999.0,  999.0,  999.0,  999.0,  999.0,  999.0,  999.0,  999.0,  999.0,  999.0,  999.0,  999.0,  999.0,  999.0,  999.0,  999.0,  999.0,  999.0,  999.0,  999.0,  999.0,  999.0,  999.0,  999.0,  999.0,  999.0,  999.0,  999.0,  999.0,  999.0,  999.0,  999.0,  999.0,   -1.0,   -1.0,   -1.0,   -1.1,   -1.0,   -1.0,   -1.0,   -1.0,   -1.0,   -1.0,   -1.0,   -0.9,   -0.9,   -0.9,   -0.8,   -0.8
2001/06/22 16:10,    0.0,    0.0,   -0.3,    0.1,   -0.2,   -0.0,   -0.1,   -0.0,    0.1,  999.0,    0.1,   -0.2,   -0.2,  999.0,  999.0,  999.0,  999.0,  999.0,  999.0,  999.0,  999.0,  999.0,  999.0,  999.0,  999.0,  999.0,  999.0,  999.0,  999.0,  999.0,  999.0,  999.0,  999.0,  999.0,  999.0,  999.0,   -1.4,   -1.4,   -1.0,   -1.1,   -1.0,   -1.0,   -1.0,   -0.9,   -0.9,   -0.9,   -0.9,   -0.9,   -0.9,   -0.9,   -1.0,   -0.9,   -1.0,   -1.0,   -1.2,   -1.2,   -0.9,   -0.9,   -1.0,   -0.8,   -0.8,   -0.7,   -0.1
2001/06/22 16:20,   -0.1,   -0.1,   -0.2,   -0.1,   -0.1,   -0.2,   -0.3,    0.0,  999.0,  999.0,    0.1,   -0.0,   -0.0,  999.0,  999.0,  999.0,  999.0,  999.0,  999.0,  999.0,  999.0,  999.0,  999.0,  999.0,  999.0,  999.0,  999.0,  999.0,  999.0,  999.0,  999.0,  999.0,  999.0,   -0.9,   -1.1,   -1.0,   -1.1,   -1.0,   -1.0,   -1.0,   -1.1,   -1.1,   -1.1,   -1.1,   -1.1,   -1.0,   -1.0,   -1.1,   -1.1,   -1.0,   -1.0,   -1.0,   -1.1,   -1.1,   -1.1,   -1.1,   -1.0,   -0.9,   -0.9,   -0.9,   -0.9,   -0.8,   -0.8
2001/06/22 16:30,  999.0,  999.0,   -0.4,   -0.4,   -0.2,    0.0,    0.1,    0.0,  999.0,   -0.1,  999.0,   -0.1,  999.0,    0.0,  999.0,  999.0,  999.0,  999.0,  999.0,  999.0,  999.0,  999.0,  999.0,  999.0,  999.0,  999.0,  999.0,  999.0,  999.0,   -0.9,   -1.0,   -1.0,   -1.1,   -1.1,   -1.1,   -1.2,   -1.2,   -1.3,   -1.3,   -1.2,   -1.2,   -1.2,   -1.1,   -1.1,   -1.1,   -1.1,   -1.1,   -1.0,   -1.0,   -1.1,   -1.1,   -1.1,   -1.1,   -1.1,   -1.1,   -1.1,   -1.1,   -1.1,   -1.0,   -0.9,   -0.8,   -0.9,   -0.7
2001/06/22 16:40,   -0.0,   -0.3,   -0.2,  999.0,   -0.3,   -0.0,   -0.0,  999.0,    0.2,    0.2,    0.1,  999.0,   -0.0,    0.1,  999.0,  999.0,  999.0,  999.0,  999.0,  999.0,  999.0,  999.0,  999.0,  999.0,  999.0,  999.0,  999.0,   -0.3,   -0.5,   -1.1,   -1.1,   -1.1,   -1.1,   -1.1,   -1.0,   -1.0,   -1.0,   -1.0,   -1.0,   -0.9,   -0.9,   -0.9,   -0.9,   -0.8,   -0.8,   -0.9,   -0.9,   -0.8,   -0.9,   -0.9,   -0.9,   -0.9,   -0.9,   -0.9,   -0.9,   -0.9,   -0.8,   -0.8,   -0.8,   -0.8,   -0.8,   -0.8,   -0.7
2001/06/22 16:50,    0.4,    0.1,   -0.2,    0.0,   -0.3,   -0.3,    0.2,    0.1,    0.1,  999.0,  999.0,   -0.0,   -0.1,   -0.1,  999.0,  999.0,  999.0,  999.0,  999.0,  999.0,  999.0,  999.0,  999.0,  999.0,  999.0,    0.1,    0.1,   -0.1,   -0.4,   -1.0,   -1.2,   -1.3,   -1.3,   -1.3,   -1.3,   -1.3,   -1.3,   -1.3,   -1.2,   -1.1,   -1.1,   -1.1,   -1.0,   -1.0,   -1.0,   -1.0,   -1.0,   -0.9,   -0.9,   -0.9,   -0.9,   -0.8,   -0.8,   -0.8,   -0.8,   -0.8,   -0.7,   -0.7,   -0.8,   -0.9,   -0.8,   -0.7,   -0.6
2001/06/22 17:00,    0.0,   -0.1,    0.2,    0.1,    0.1,    0.1,    0.5,    0.1,    0.1,    0.7,  999.0,    0.0,   -0.1,   -0.0,  999.0,  999.0,  999.0,  999.0,  999.0,  999.0,  999.0,  999.0,  999.0,  999.0,    0.1,   -0.2,   -0.1,   -0.6,   -1.1,   -1.2,   -1.3,   -1.4,   -1.4,   -1.4,   -1.4,   -1.3,   -1.3,   -1.2,   -1.2,   -1.2,   -1.1,   -1.1,   -1.0,   -1.1,   -1.0,   -1.0,   -1.0,   -1.0,   -1.0,   -1.0,   -0.9,   -0.9,   -0.9,   -0.9,   -0.9,   -0.9,   -0.8,   -0.8,   -0.8,   -0.9,   -0.7,   -0.7,  999.0
2001/06/22 17:10,   -0.0,   -0.1,   -0.1,    0.1,   -0.1,   -0.1,    0.0,   -0.2,   -0.2,   -0.1,   -0.4,    0.0,    0.1,    0.0,  999.0,  999.0,  999.0,  999.0,  999.0,  999.0,  999.0,  999.0,  999.0,   -0.0,    0.1,    0.1,    0.1,   -0.1,   -0.5,   -1.3,   -1.3,   -1.3,   -1.3,   -1.3,   -1.3,   -1.3,   -1.3,   -1.3,   -1.3,   -1.3,   -1.3,   -1.2,   -1.2,   -1.1,   -1.1,   -1.1,   -1.0,   -1.1,   -1.0,   -1.0,   -1.0,   -1.0,   -1.0,   -1.0,   -0.8,   -0.9,   -1.1,  999.0,  999.0,  999.0,  999.0,  999.0,  999.0
2001/06/22 17:20,    0.0,    0.0,   -0.2,    0.0,   -0.2,   -0.2,   -0.2,    0.1,    0.1,   -0.1,   -0.1,  999.0,   -0.1,   -0.2,  999.0,  999.0,  999.0,  999.0,   -0.1,  999.0,  999.0,  999.0,  999.0,    0.1,    0.1,  999.0,   -0.2,   -0.2,   -0.0,   -0.7,   -1.1,   -1.1,   -1.1,   -1.2,   -1.2,   -1.0,   -0.9,   -0.9,   -1.0,   -1.0,   -0.9,   -0.9,   -0.9,   -0.8,   -0.8,   -0.6,   -0.6,   -0.8,  999.0,  999.0,  999.0,  999.0,  999.0,  999.0,  999.0,  999.0,  999.0,  999.0,  999.0,  999.0,  999.0,  999.0,  999.0
2001/06/22 17:30,    0.1,    0.1,    0.2,    0.0,    0.3,   -0.4,   -0.3,  999.0,    0.1,   -0.1,   -0.2,   -0.2,  999.0,  999.0,  999.0,    0.2,  999.0,  999.0,  999.0,  999.0,  999.0,  999.0,  999.0,  999.0,   -0.2,  999.0,  999.0,  999.0,    0.1,    0.0,  999.0,  999.0,  999.0,   -0.8,   -1.0,   -1.1,   -1.1,   -1.1,   -1.1,   -1.2,   -1.2,   -1.1,   -1.1,   -0.9,   -0.8,   -0.7,   -0.7,   -0.7,  999.0,  999.0,  999.0,  999.0,  999.0,  999.0,  999.0,  999.0,  999.0,  999.0,  999.0,  999.0,  999.0,  999.0,  999.0
2001/06/22 17:40,  999.0,  999.0,  999.0,  999.0,  999.0,  999.0,  999.0,  999.0,  999.0,  999.0,  999.0,  999.0,  999.0,  999.0,  999.0,  999.0,  999.0,  999.0,  999.0,  999.0,  999.0,  999.0,  999.0,  999.0,  999.0,  999.0,  999.0,  999.0,  999.0,  999.0,  999.0,  999.0,  999.0,  999.0,  999.0,  999.0,  999.0,  999.0,  999.0,  999.0,  999.0,  999.0,  999.0,  999.0,  999.0,  999.0,  999.0,  999.0,  999.0,  999.0,  999.0,  999.0,  999.0,  999.0,  999.0,  999.0,  999.0,  999.0,  999.0,  999.0,  999.0,  999.0,  999.0
2001/06/22 17:50,   -0.2,   -0.0,  999.0,    0.0,    0.4,   -0.8,   -0.6,   -0.3,   -0.1,  999.0,   -0.4,   -0.2,  999.0,    0.1,  999.0,  999.0,  999.0,    0.2,    0.4,  999.0,  999.0,  999.0,   -0.1,  999.0,    0.3,  999.0,  999.0,   -0.2,    0.2,    0.4,   -0.9,   -0.9,   -0.8,   -0.9,   -0.8,   -0.8,   -0.8,   -0.9,   -0.9,   -1.0,   -1.0,   -1.0,   -0.8,   -0.9,   -0.8,   -0.8,   -0.8,   -0.9,   -0.9,   -0.9,   -1.0,   -0.8,   -0.8,  999.0,  999.0,  999.0,  999.0,  999.0,  999.0,  999.0,  999.0,  999.0,  999.0
2001/06/22 18:00,    0.1,   -0.0,   -0.2,   -0.2,   -0.3,   -0.4,   -0.2,   -0.0,    0.0,   -0.1,  999.0,   -0.1,   -0.0,    0.1,  999.0,  999.0,  999.0,   -0.0,    0.1,  999.0,  999.0,  999.0,   -0.1,   -0.1,   -0.2,   -0.1,  999.0,    0.2,    0.3,    0.0,   -0.9,   -1.2,   -1.1,   -1.0,   -1.0,   -0.9,   -0.9,   -0.9,   -0.9,   -1.0,   -0.9,   -0.9,   -0.8,   -0.8,   -0.8,   -0.8,   -0.8,   -0.8,   -0.9,   -0.9,   -0.9,   -0.9,   -0.9,  999.0,  999.0,  999.0,  999.0,  999.0,  999.0,  999.0,  999.0,  999.0,  999.0
2001/06/22 18:10,    0.4,    0.0,   -0.2,   -0.1,    0.0,    0.1,    0.1,    0.1,    0.2,    0.0,  999.0,   -0.1,   -0.1,   -0.1,  999.0,   -0.2,  999.0,   -0.4,   -0.5,  999.0,   -0.4,   -0.5,   -0.4,   -0.2,   -0.2,    0.1,   -0.3,   -0.1,   -0.4,   -1.1,   -1.2,   -1.3,   -1.2,   -1.2,   -1.1,   -1.1,   -1.1,   -1.1,   -1.0,   -1.1,   -1.1,   -1.0,   -1.0,   -0.9,   -0.9,   -0.8,   -0.8,   -1.0,  999.0,  999.0,  999.0,  999.0,  999.0,  999.0,  999.0,  999.0,  999.0,  999.0,  999.0,  999.0,  999.0,  999.0,  999.0
2001/06/22 18:20,    0.2,    0.3,    0.2,   -0.1,   -0.1,    0.1,    0.0,    0.1,   -0.0,    0.0,   -0.0,    0.0,   -0.2,    0.0,    0.2,  999.0,  999.0,  999.0,  999.0,  999.0,   -0.1,   -0.2,   -0.3,   -0.1,  999.0,  999.0,   -0.0,    0.0,   -0.2,   -0.8,   -0.9,   -0.9,   -1.0,   -1.2,   -1.3,   -1.2,   -1.2,   -1.2,   -1.3,   -1.4,   -1.3,   -1.2,   -1.0,   -0.8,   -0.7,   -0.6,  999.0,  999.0,  999.0,  999.0,  999.0,  999.0,  999.0,  999.0,  999.0,  999.0,  999.0,  999.0,  999.0,  999.0,  999.0,  999.0,  999.0
2001/06/22 18:30,    0.1,    0.3,   -0.1,    0.0,   -0.0,    0.0,    0.1,    0.1,    0.1,   -0.1,  999.0,  999.0,  999.0,   -0.0,  999.0,  999.0,  999.0,  999.0,  999.0,  999.0,    0.0,   -0.0,  999.0,   -0.1,  999.0,  999.0,   -0.0,    0.1,   -0.0,   -0.6,   -1.4,   -1.5,   -1.8,   -1.8,   -1.8,   -1.7,   -1.7,   -1.6,   -1.5,   -1.4,   -1.2,   -1.0,   -0.7,   -0.8,  999.0,  999.0,  999.0,  999.0,  999.0,  999.0,  999.0,  999.0,  999.0,  999.0,  999.0,  999.0,  999.0,  999.0,  999.0,  999.0,  999.0,  999.0,  999.0
2001/06/22 18:40,  999.0,  999.0,   -0.2,   -0.1,   -0.2,   -0.2,   -0.1,    0.2,    0.0,    0.1,   -0.1,   -0.1,    0.0,   -0.1,  999.0,  999.0,  999.0,    0.4,  999.0,  999.0,   -0.0,   -0.1,  999.0,   -0.2,   -0.2,   -0.2,  999.0,   -0.9,   -0.3,   -2.0,   -1.9,   -2.0,   -2.1,   -2.2,   -2.2,   -2.2,   -1.9,   -1.5,   -1.2,   -1.0,   -1.0,   -0.9,   -0.5,  999.0,  999.0,  999.0,  999.0,  999.0,  999.0,  999.0,  999.0,  999.0,  999.0,  999.0,  999.0,  999.0,  999.0,  999.0,  999.0,  999.0,  999.0,  999.0,  999.0
2001/06/22 18:50,   -0.1,   -0.3,   -0.1,   -0.1,   -0.1,   -0.2,    0.2,   -0.1,   -0.0,   -0.0,  999.0,   -0.1,   -0.1,   -0.0,  999.0,  999.0,  999.0,  999.0,    0.5,  999.0,    0.6,    0.6,    0.4,    0.4,    0.1,  999.0,    0.2,   -0.0,    0.0,   -1.8,  999.0,   -1.9,   -2.1,   -2.1,   -2.1,   -1.9,   -1.6,   -1.5,   -1.3,   -1.3,   -1.2,   -1.1,   -0.8,   -0.6,  999.0,  999.0,  999.0,  999.0,  999.0,  999.0,  999.0,  999.0,  999.0,  999.0,  999.0,  999.0,  999.0,  999.0,  999.0,  999.0,  999.0,  999.0,  999.0
2001/06/22 19:00,    0.1,  999.0,    0.0,   -0.1,   -0.1,  999.0,    0.0,    0.2,   -0.0,   -0.5,   -0.1,   -0.2,   -0.2,   -0.3,  999.0,  999.0,  999.0,  999.0,   -0.1,  999.0,   -0.3,    0.0,   -0.0,    0.0,    0.0,  999.0,   -0.3,   -0.7,   -1.0,   -1.5,  999.0,  999.0,   -0.6,    0.0,  999.0,   -0.3,   -0.7,   -1.0,   -1.0,   -0.9,   -0.9,   -0.8,   -0.7,   -0.3,  999.0,  999.0,  999.0,  999.0,  999.0,  999.0,  999.0,  999.0,  999.0,  999.0,  999.0,  999.0,  999.0,  999.0,  999.0,  999.0,  999.0,  999.0,  999.0
2001/06/22 19:10,   -0.0,   -0.1,   -0.1,    0.1,    0.1,  999.0,    0.1,    0.2,    0.1,    0.1,   -0.1,  999.0,  999.0,    0.1,  999.0,  999.0,  999.0,  999.0,    0.2,  999.0,  999.0,    0.4,    0.2,    0.2,  999.0,  999.0,  999.0,    0.1,  999.0,  999.0,  999.0,  999.0,  999.0,  999.0,  999.0,    0.2,    0.2,  999.0,  999.0,  999.0,  999.0,  999.0,  999.0,  999.0,   -0.0,   -0.1,  999.0,  999.0,  999.0,  999.0,  999.0,  999.0,  999.0,  999.0,  999.0,  999.0,  999.0,  999.0,  999.0,  999.0,  999.0,  999.0,  999.0
2001/06/22 19:20,    0.0,   -0.1,    0.2,    0.3,  999.0,  999.0,  999.0,    0.3,   -0.0,  999.0,   -0.0,   -0.0,   -0.0,    0.1,  999.0,  999.0,  999.0,  999.0,    0.2,    0.0,  999.0,    0.1,   -0.0,    0.0,   -0.0,   -0.1,   -0.1,    0.2,  999.0,  999.0,  999.0,  999.0,  999.0,   -2.2,   -2.1,   -1.7,   -1.5,   -1.7,   -1.7,   -1.3,   -1.4,   -1.0,   -0.7,   -0.2,   -0.1,  999.0,  999.0,  999.0,  999.0,  999.0,  999.0,  999.0,  999.0,  999.0,  999.0,  999.0,  999.0,  999.0,  999.0,  999.0,  999.0,  999.0,  999.0
2001/06/22 19:30,   -0.1,   -0.4,   -0.2,    0.4,    0.2,    0.2,    0.0,    0.2,    0.0,  999.0,    0.1,  999.0,   -0.2,   -0.2,  999.0,  999.0,  999.0,  999.0,  999.0,  999.0,  999.0,    0.2,  999.0,    0.1,   -0.0,  999.0,   -0.3,  999.0,  999.0,   -2.6,   -2.5,   -2.4,   -2.2,   -1.8,   -1.9,   -2.1,   -2.0,   -2.0,   -1.8,   -1.8,   -1.5,   -1.4,   -1.1,   -0.7,   -0.8,  999.0,  999.0,  999.0,  999.0,  999.0,  999.0,  999.0,  999.0,  999.0,  999.0,  999.0,  999.0,  999.0,  999.0,  999.0,  999.0,  999.0,  999.0
2001/06/22 19:40,   -0.2,    0.0,    0.3,    0.2,    0.4,    0.4,    0.0,    0.4,    0.2,    0.3,   -0.2,  999.0,  999.0,   -0.2,  999.0,  999.0,  999.0,  999.0,  999.0,  999.0,  999.0,  999.0,    0.3,  999.0,    0.2,  999.0,   -1.3,  999.0,  999.0,  999.0,  999.0,  999.0,  999.0,   -0.2,   -0.3,   -0.9,   -1.2,   -1.3,   -1.3,   -1.3,   -1.3,   -1.2,   -1.0,   -0.9,   -0.8,   -0.7,  999.0,  999.0,  999.0,  999.0,  999.0,  999.0,  999.0,  999.0,  999.0,  999.0,  999.0,  999.0,  999.0,  999.0,  999.0,  999.0,  999.0
2001/06/22 19:50,    0.1,   -0.1,    0.3,    0.3,    0.1,    0.6,    0.2,   -0.0,    0.0,    0.1,    0.1,    0.0,    0.1,   -0.4,  999.0,  999.0,  999.0,  999.0,  999.0,  999.0,  999.0,  999.0,  999.0,  999.0,   -0.1,  999.0,  999.0,  999.0,  999.0,  999.0,  999.0,  999.0,  999.0,   -0.0,   -0.5,   -0.8,   -1.2,   -1.3,   -1.3,   -1.4,   -1.3,   -1.2,   -1.2,   -1.2,   -1.2,   -1.1,   -1.1,   -1.0,   -1.0,   -1.0,   -0.9,   -0.9,   -0.9,  999.0,  999.0,   -1.2,   -1.2,   -1.2,  999.0,  999.0,  999.0,  999.0,  999.0
2001/06/22 20:00,   -0.2,   -0.0,    0.2,    0.3,   -0.1,   -0.2,   -0.2,    1.1,    0.4,   -0.1,    0.2,    0.6,    0.0,    0.4,   -0.6,  999.0,  999.0,  999.0,  999.0,  999.0,  999.0,   -0.2,  999.0,  999.0,  999.0,  999.0,  999.0,  999.0,  999.0,  999.0,  999.0,  999.0,  999.0,   -1.3,   -1.2,   -1.2,   -1.2,   -1.2,   -1.2,   -1.1,   -1.1,   -1.0,   -0.9,   -1.0,   -0.9,   -0.9,   -1.0,  999.0,  999.0,  999.0,  999.0,  999.0,  999.0,  999.0,  999.0,  999.0,  999.0,  999.0,  999.0,  999.0,  999.0,  999.0,  999.0
2001/06/22 20:10,   -0.3,    0.0,   -0.1,   -0.0,    0.0,   -0.1,   -0.3,    0.1,    0.4,    0.5,    0.2,    0.4,    0.8,    0.3,    0.8,  999.0,  999.0,  999.0,   -0.2,  999.0,  999.0,  999.0,  999.0,  999.0,  999.0,  999.0,  999.0,  999.0,  999.0,  999.0,  999.0,  999.0,  999.0,   -1.3,   -1.0,   -1.0,   -0.8,   -0.9,  999.0,   -0.8,   -0.7,   -0.8,  999.0,  999.0,  999.0,  999.0,  999.0,  999.0,  999.0,  999.0,  999.0,  999.0,  999.0,  999.0,  999.0,  999.0,  999.0,  999.0,  999.0,  999.0,  999.0,  999.0,  999.0
2001/06/22 20:20,   -0.2,    0.0,   -0.3,   -0.3,   -0.3,   -0.2,    0.1,   -0.5,   -0.0,    0.0,    0.3,    0.3,  999.0,  999.0,  999.0,    0.7,  999.0,  999.0,  999.0,  999.0,  999.0,  999.0,  999.0,  999.0,  999.0,  999.0,  999.0,  999.0,   -0.0,  999.0,  999.0,  999.0,  999.0,  999.0,   -0.8,   -0.8,   -0.8,   -0.7,   -0.7,   -0.7,  999.0,  999.0,  999.0,  999.0,  999.0,  999.0,  999.0,  999.0,  999.0,  999.0,  999.0,  999.0,  999.0,  999.0,  999.0,  999.0,  999.0,  999.0,  999.0,  999.0,  999.0,  999.0,  999.0
2001/06/22 20:30,   -0.1,    0.0,    0.3,    0.1,   -0.3,   -0.4,   -0.6,   -0.3,   -0.1,  999.0,   -0.0,    0.4,    0.6,    0.3,  999.0,  999.0,  999.0,  999.0,   -0.1,  999.0,  999.0,  999.0,  999.0,  999.0,  999.0,  999.0,  999.0,  999.0,  999.0,  999.0,  999.0,  999.0,  999.0,  999.0,  999.0,  999.0,   -1.0,   -0.9,   -1.1,   -1.0,   -1.0,   -0.9,   -1.0,   -0.9,   -1.0,   -0.9,   -0.9,   -0.8,   -0.8,   -0.9,   -0.9,   -0.9,   -0.9,   -0.8,   -0.8,   -0.8,   -0.8,   -0.8,   -0.7,   -0.8,   -0.8,   -0.7,   -0.6
2001/06/22 20:40,   -0.1,   -0.5,   -0.4,   -0.3,   -0.2,   -0.4,   -0.3,   -0.1,    0.2,    0.0,    0.1,  999.0,   -0.4,    0.6,   -0.8,   -0.6,  999.0,    0.3,    0.2,  999.0,  999.0,    0.1,  999.0,  999.0,  999.0,  999.0,  999.0,  999.0,  999.0,  999.0,  999.0,  999.0,  999.0,  999.0,  999.0,  999.0,   -1.0,   -1.1,   -1.1,   -1.0,   -1.0,   -0.9,   -0.8,   -0.9,   -1.0,   -0.9,   -1.0,   -0.9,   -0.9,   -0.8,   -0.9,   -0.8,   -0.8,   -0.8,   -0.7,   -0.7,   -0.6,  999.0,  999.0,  999.0,  999.0,  999.0,  999.0
2001/06/22 20:50,   -0.1,   -0.3,   -0.5,   -0.4,   -0.5,  999.0,   -0.3,   -0.1,   -0.2,    0.4,    0.1,   -0.1,   -0.2,   -0.3,   -0.1,   -0.0,  999.0,  999.0,    0.1,  999.0,  999.0,    0.2,  999.0,  999.0,  999.0,  999.0,  999.0,  999.0,  999.0,  999.0,  999.0,  999.0,  999.0,  999.0,   -1.0,   -1.2,   -1.1,   -1.1,   -1.1,   -1.0,   -1.0,   -1.0,   -1.0,   -0.9,   -1.0,   -0.9,   -0.8,   -0.9,   -0.8,   -0.9,   -0.8,   -0.8,   -0.9,  999.0,  999.0,  999.0,  999.0,  999.0,  999.0,  999.0,  999.0,  999.0,  999.0
2001/06/22 21:00,   -0.2,   -0.0,   -0.2,   -0.3,   -0.3,   -0.4,   -0.7,   -0.3,   -0.1,   -0.2,   -0.1,    0.0,  999.0,    0.3,  999.0,    0.0,    0.2,  999.0,  999.0,  999.0,  999.0,  999.0,  999.0,  999.0,  999.0,  999.0,  999.0,  999.0,  999.0,  999.0,  999.0,   -0.2,   -1.1,   -1.1,   -1.2,   -1.2,   -1.2,   -1.1,   -1.1,   -1.1,   -1.1,   -1.0,   -1.0,   -0.9,   -0.9,   -0.9,   -0.9,   -0.9,   -0.8,  999.0,  999.0,  999.0,  999.0,  999.0,  999.0,  999.0,  999.0,  999.0,  999.0,   -0.9,   -0.9,   -0.8,   -0.8
2001/06/22 21:10,   -0.2,   -0.4,   -0.4,   -0.2,   -0.4,   -0.9,   -0.4,   -0.5,   -0.0,   -0.1,   -0.2,   -0.4,    0.0,    0.1,  999.0,  999.0,  999.0,  999.0,  999.0,  999.0,  999.0,    0.2,    0.2,  999.0,  999.0,   -0.1,  999.0,  999.0,  999.0,  999.0,  999.0,   -0.4,   -1.0,   -1.2,   -1.2,   -1.3,   -1.3,   -1.3,   -1.3,   -1.3,   -1.3,   -1.3,   -1.2,   -1.1,   -1.1,   -1.1,   -1.1,   -1.1,   -1.1,   -1.1,   -1.0,   -1.0,   -0.9,   -1.0,   -0.9,   -0.8,   -0.9,  999.0,  999.0,  999.0,  999.0,  999.0,  999.0
2001/06/22 21:20,   -0.2,   -0.8,   -0.8,   -0.1,   -0.1,   -0.3,   -0.2,   -0.2,   -0.1,   -0.3,   -0.5,   -0.2,    0.5,    0.7,  999.0,  999.0,  999.0,    0.3,    0.2,  999.0,  999.0,  999.0,  999.0,  999.0,  999.0,  999.0,  999.0,   -0.0,  999.0,  999.0,   -1.2,   -1.1,   -1.5,   -1.4,   -1.3,   -1.3,   -1.2,   -1.2,   -1.1,   -1.2,   -1.2,   -1.1,   -1.2,   -1.2,   -1.2,   -1.2,   -1.2,   -1.2,   -1.2,   -1.2,   -1.2,   -1.2,   -1.1,   -1.1,   -1.1,   -1.0,   -1.1,  999.0,  999.0,  999.0,  999.0,  999.0,  999.0
2001/06/22 21:30,   -0.1,   -0.6,   -0.3,    0.1,   -0.3,    0.2,    0.2,   -0.0,    0.1,   -0.2,    0.3,    0.3,    0.5,    0.6,  999.0,  999.0,  999.0,   -0.4,  999.0,  999.0,  999.0,   -0.0,  999.0,  999.0,  999.0,  999.0,   -0.1,  999.0,  999.0,  999.0,   -1.5,   -1.6,   -1.4,   -1.4,   -1.3,   -1.4,   -1.3,   -1.3,   -1.3,   -1.3,   -1.2,   -1.2,   -1.2,   -1.1,   -1.0,   -1.0,   -1.0,   -1.1,   -1.1,   -1.1,   -1.1,   -1.1,   -1.0,   -1.1,   -0.9,  999.0,  999.0,  999.0,  999.0,  999.0,  999.0,  999.0,  999.0
2001/06/22 21:40,   -0.1,   -0.6,   -0.4,   -0.1,   -0.0,   -0.0,   -0.2,   -0.4,   -0.4,   -0.1,    0.2,    0.1,    0.2,    0.3,  999.0,  999.0,   -0.2,   -0.4,  999.0,  999.0,    0.1,   -0.3,  999.0,  999.0,  999.0,  999.0,  999.0,   -0.8,   -1.0,   -1.4,   -1.5,   -1.6,   -1.4,   -1.4,   -1.3,   -1.3,   -1.2,   -1.2,   -1.2,   -1.2,   -1.2,   -1.2,   -1.2,   -1.0,   -1.0,   -0.9,   -1.0,   -1.0,   -1.0,   -1.1,   -1.0,   -1.0,   -1.0,   -0.9,   -0.9,   -0.9,  999.0,  999.0,  999.0,  999.0,  999.0,  999.0,  999.0
2001/06/22 21:50,   -0.1,   -0.7,   -0.5,   -0.2,   -0.2,   -0.2,    0.6,    0.2,    0.2,   -0.0,    0.1,    0.1,    0.2,    0.5,  999.0,  999.0,  999.0,    0.0,  999.0,  999.0,    0.4,    0.2,  999.0,  999.0,  999.0,    0.2,    0.1,   -0.1,   -1.0,   -1.2,   -1.2,   -1.3,   -1.4,   -1.1,   -1.2,   -1.3,   -1.3,   -1.2,   -1.2,   -1.2,   -1.2,   -1.2,   -1.1,   -1.1,   -1.0,   -1.0,   -1.0,   -1.0,   -1.0,   -1.0,   -0.9,   -0.9,   -0.9,   -0.9,   -0.9,   -0.9,   -0.9,   -0.8,  999.0,  999.0,  999.0,  999.0,  999.0
2001/06/22 22:00,  999.0,   -0.2,   -0.1,   -0.1,   -0.2,    0.4,    0.4,    0.5,   -0.2,   -0.2,   -0.0,   -0.4,    0.1,   -0.4,  999.0,  999.0,  999.0,    0.0,  999.0,  999.0,    0.3,    0.2,  999.0,  999.0,    0.3,    0.1,   -0.4,   -1.0,   -1.3,   -1.3,   -1.3,   -1.2,   -1.3,   -1.3,   -1.3,   -1.3,   -1.3,   -1.3,   -1.3,   -1.3,   -1.2,   -1.2,   -1.2,   -1.1,   -1.1,   -1.1,   -1.0,   -1.1,   -1.1,   -1.1,   -1.1,   -1.0,   -1.0,   -1.0,   -1.0,   -1.0,   -1.0,   -0.9,   -0.9,   -0.9,   -0.9,   -0.9,   -0.9
2001/06/22 22:10,   -0.3,   -0.7,   -0.7,   -0.2,   -0.3,    0.0,    0.2,  999.0,    0.2,    0.4,    0.1,   -0.1,   -0.2,   -0.4,  999.0,  999.0,  999.0,  999.0,  999.0,  999.0,    0.4,    0.4,  999.0,    0.3,    0.3,   -0.9,   -1.6,   -1.5,   -1.4,   -1.4,   -1.4,   -1.4,   -1.4,   -1.4,   -1.4,   -1.4,   -1.4,   -1.4,   -1.3,   -1.4,   -1.3,   -1.3,   -1.2,   -1.2,   -1.2,   -1.2,   -1.2,   -1.2,   -1.2,   -1.2,   -1.2,   -1.2,   -1.1,   -1.1,   -1.0,   -1.0,   -1.0,   -1.0,   -1.0,   -0.8,   -0.9,  999.0,  999.0
2001/06/22 22:20,   -0.2,   -0.8,   -0.5,   -0.2,   -0.2,   -0.3,    0.2,    0.1,   -0.2,   -0.4,   -0.1,    0.1,   -0.5,   -0.5,  999.0,  999.0,  999.0,  999.0,  999.0,    0.8,    0.4,  999.0,    0.4,    0.3,   -0.0,   -1.1,   -1.1,   -1.1,   -1.2,   -1.3,   -1.3,   -1.2,   -1.2,   -1.2,   -1.2,   -1.2,   -1.2,   -1.2,   -1.2,   -1.1,   -1.1,   -1.0,   -1.0,   -1.0,   -1.0,   -1.0,   -1.0,   -1.0,   -1.0,   -1.1,   -1.1,   -1.0,   -1.0,   -0.9,   -0.9,   -0.8,   -0.8,   -0.8,   -0.8,   -0.7,   -0.7,   -0.7,   -0.8
2001/06/22 22:30,   -0.3,   -0.6,   -0.7,   -0.5,   -0.3,   -0.2,  999.0,    0.2,    0.2,    0.1,    0.2,    0.2,  999.0,   -0.2,  999.0,  999.0,  999.0,  999.0,  999.0,    0.4,    0.4,    0.5,    0.3,    0.4,   -0.3,   -1.0,   -1.0,   -1.2,   -1.3,   -1.4,   -1.3,   -1.2,   -1.3,   -1.3,   -1.2,   -1.2,   -1.4,   -1.4,   -1.4,   -1.3,   -1.3,   -1.3,   -1.2,   -1.3,   -1.2,   -1.2,   -1.2,   -1.3,   -1.2,   -1.2,   -1.2,   -1.2,   -1.1,   -1.1,   -1.2,   -1.1,   -1.1,   -1.0,   -1.0,   -1.0,   -0.9,   -0.9,   -0.8
2001/06/22 22:40,   -0.2,   -0.6,   -0.6,   -0.4,   -0.2,   -0.2,    0.1,    0.0,   -0.0,    0.1,  999.0,  999.0,   -0.3,   -0.3,  999.0,  999.0,   -0.1,  999.0,  999.0,    0.2,    0.3,    0.4,    0.4,    0.0,   -0.6,   -0.9,   -1.3,   -1.6,   -1.5,   -1.4,   -1.3,   -1.4,   -1.3,   -1.4,   -1.3,   -1.4,   -1.4,   -1.3,   -1.3,   -1.3,   -1.2,   -1.2,   -1.1,   -1.1,   -1.1,   -1.1,   -1.1,   -1.2,   -1.2,   -1.2,   -1.2,   -1.2,   -1.1,   -1.1,   -1.1,   -1.1,   -1.1,   -1.1,   -1.1,   -1.0,   -1.0,   -1.0,   -0.9
2001/06/22 22:50,   -0.1,   -0.5,   -0.7,   -0.5,   -0.4,   -0.2,   -0.1,    0.1,  999.0,    0.1,    0.2,    0.1,   -0.2,   -0.2,    0.2,    0.1,    0.1,    0.2,    0.3,    0.2,    0.3,    0.3,    0.1,   -0.4,   -1.1,   -1.0,   -1.1,   -1.2,   -1.3,   -1.3,   -1.3,   -1.2,   -1.2,   -1.2,   -1.2,   -1.3,   -1.3,   -1.2,   -1.2,   -1.2,   -1.1,   -1.1,   -1.1,   -1.1,   -1.1,   -1.1,   -1.1,   -1.1,   -1.2,   -1.2,   -1.2,   -1.2,   -1.2,   -1.1,   -1.1,   -1.0,   -1.0,   -0.9,   -0.9,   -0.9,   -0.8,   -0.9,   -0.8
2001/06/22 23:00,   -0.1,   -0.6,   -0.5,   -0.6,   -0.4,   -0.2,   -0.1,   -0.1,   -0.1,    0.2,    0.1,    0.1,   -0.1,   -0.2,  999.0,  999.0,  999.0,  999.0,    0.2,    0.3,    0.3,   -0.5,   -0.9,   -1.1,   -1.2,   -1.3,   -1.5,   -1.5,   -1.2,   -1.2,   -1.3,   -1.2,   -1.2,   -1.2,   -1.3,   -1.3,   -1.4,   -1.4,   -1.4,   -1.4,   -1.4,   -1.3,   -1.4,   -1.4,   -1.3,   -1.3,   -1.3,   -1.3,   -1.3,   -1.3,   -1.3,   -1.2,   -1.2,   -1.2,   -1.1,   -1.1,   -1.0,   -1.0,   -1.0,   -1.0,   -0.9,   -0.9,   -0.9
2001/06/22 23:10,   -0.2,   -0.4,   -0.5,   -0.4,   -0.2,   -0.2,   -0.0,    0.1,    0.2,    0.3,    0.2,    0.2,  999.0,   -0.1,  999.0,  999.0,  999.0,  999.0,    0.3,    0.6,    0.5,    0.1,   -0.8,   -0.9,   -0.9,   -1.1,   -1.3,   -1.3,   -1.3,   -1.3,   -1.3,   -1.3,   -1.2,   -1.3,   -1.3,   -1.3,   -1.4,   -1.4,   -1.4,   -1.4,   -1.4,   -1.4,   -1.3,   -1.3,   -1.3,   -1.2,   -1.2,   -1.2,   -1.2,   -1.1,   -1.1,   -1.1,   -1.1,   -1.0,   -1.0,   -1.0,   -1.0,   -0.9,   -0.9,   -0.9,   -0.9,   -0.9,   -0.9
2001/06/22 23:20,   -0.1,   -0.4,   -0.7,   -0.4,   -0.3,   -0.2,    0.0,    0.2,    0.6,    0.6,    0.4,    0.2,    0.1,    0.1,  999.0,    0.2,  999.0,  999.0,  999.0,    0.4,   -1.2,   -1.6,   -1.1,   -1.0,   -1.2,   -1.3,   -1.4,   -1.4,   -1.2,   -1.2,   -1.1,   -1.1,   -1.1,   -1.1,   -1.1,   -1.1,   -1.2,   -1.2,   -1.2,   -1.3,   -1.3,   -1.2,   -1.2,   -1.3,   -1.3,   -1.2,   -1.3,   -1.3,   -1.2,   -1.1,   -1.2,   -1.2,   -1.1,   -1.1,   -1.1,   -1.1,   -1.1,   -1.0,   -1.0,   -0.9,   -0.9,   -0.9,   -0.9
2001/06/22 23:30,   -0.3,  999.0,    0.0,   -0.2,   -0.2,   -1.4,   -0.1,   -0.7,   -0.3,    0.3,   -0.4,  999.0,    0.0,  999.0,   -2.8,   -2.1,   -2.1,   -2.7,  999.0,   -2.4,   -2.4,   -2.3,   -1.1,   -0.9,   -1.0,   -1.1,   -1.0,   -1.1,   -1.0,   -0.9,   -0.9,   -0.9,   -0.9,   -0.9,   -0.9,   -0.9,   -1.0,   -0.9,   -0.9,   -1.0,   -1.0,   -1.0,   -1.0,   -1.0,   -1.1,   -1.1,   -1.1,   -1.1,   -1.0,   -1.0,   -1.0,   -1.0,   -1.0,   -1.0,   -1.0,   -1.0,   -0.9,   -1.0,   -0.8,   -0.8,   -0.8,  999.0,  999.0
2001/06/22 23:40,   -0.2,   -0.6,   -0.6,   -0.4,   -0.3,    0.1,    0.1,   -0.3,   -0.4,   -0.5,   -0.5,   -0.5,   -0.3,  999.0,  999.0,  999.0,  999.0,  999.0,  999.0,   -1.1,   -2.0,   -1.7,   -0.9,   -0.9,   -0.9,   -0.7,   -0.8,   -0.8,   -0.8,   -0.8,   -0.9,   -1.0,   -1.0,   -1.1,   -1.1,   -1.2,   -1.2,   -1.2,   -1.2,   -1.3,   -1.3,   -1.2,   -1.2,   -1.3,   -1.3,   -1.2,   -1.2,   -1.2,   -1.2,   -1.2,   -1.2,   -1.2,   -1.2,   -1.1,   -1.1,   -1.0,   -1.0,   -1.0,   -0.9,   -0.9,   -0.8,   -0.7,  999.0
2001/06/22 23:50,   -0.2,   -0.5,   -0.4,   -0.2,   -0.1,   -0.1,   -0.1,   -0.1,   -0.3,   -0.3,   -0.5,   -0.0,   -0.1,  999.0,  999.0,  999.0,  999.0,    0.1,    0.2,  999.0,  999.0,  999.0,  999.0,   -1.3,   -1.4,   -1.2,  999.0,  999.0,  999.0,   -1.3,   -1.4,   -1.4,   -1.4,   -1.4,   -1.4,   -1.4,   -1.3,   -1.3,   -1.3,   -1.3,   -1.3,   -1.3,   -1.3,   -1.3,   -1.3,   -1.3,   -1.2,   -1.2,   -1.2,   -1.1,   -1.1,   -1.1,   -1.0,   -0.9,   -0.9,   -0.9,   -0.8,  999.0,  999.0,  999.0,  999.0,  999.0,  999.0
